Latitude: N 50° 09' 49" Longitude: W 05° 11' 53" Elevation: 168m ASL

There are 7 visitors online

Adverts

<- Previous Day | Today | Next Day ->

All Data for 20 July 2018

Time
A - D
Temp
A - D
Dew Point
A - D
Humidity
A - D
Pressure
A - D
Wind
A - D
Wind Dir Gust
A - D
Rain Rate
A - D
Rain Total
00:00 15.1 11.7 80 1019.0 0.7 NW 1.6 0.0 0.0
00:01 15.1 11.9 81 1019.1 0.7 NW 1.6 0.0 0.0
00:02 15.1 11.9 81 1019.2 0.7 NW 0.7 0.0 0.0
00:03 15.1 11.9 81 1019.0 0.7 NW 0.7 0.0 0.0
00:04 15.1 11.9 81 1018.9 0.7 NW 0.7 0.0 0.0
00:05 15.1 11.9 81 1019.0 0.7 NW 0.7 0.0 0.0
00:06 15.1 11.9 81 1019.0 0.7 NW 0.7 0.0 0.0
00:07 15.1 11.9 81 1019.2 0.7 NW 0.7 0.0 0.0
00:08 15.0 11.8 81 1018.9 2.2 N 2.2 0.0 0.0
00:09 15.0 11.8 81 1019.0 1.6 N 2.2 0.0 0.0
00:10 15.0 11.8 81 1019.1 2.2 NE 2.2 0.0 0.0
00:11 15.1 11.9 81 1018.9 1.6 NW 2.2 0.0 0.0
00:12 15.0 11.8 81 1019.0 2.2 N 2.2 0.0 0.0
00:13 15.1 11.9 81 1019.1 1.6 NW 2.2 0.0 0.0
00:14 15.1 11.9 81 1019.0 1.6 N 2.2 0.0 0.0
00:15 15.0 12.0 82 1019.0 1.6 NW 2.2 0.0 0.0
00:16 15.0 12.0 82 1018.9 1.6 NW 2.2 0.0 0.0
00:17 15.0 12.0 82 1019.0 1.6 NW 2.2 0.0 0.0
00:18 15.1 12.1 82 1019.1 1.6 N 2.2 0.0 0.0
00:19 15.1 12.1 82 1019.1 1.6 N 2.2 0.0 0.0
00:20 15.1 12.1 82 1019.0 2.2 NW 2.2 0.0 0.0
00:21 15.1 12.1 82 1019.0 0.7 NW 2.2 0.0 0.0
00:22 15.1 12.1 82 1019.1 1.6 NW 2.2 0.0 0.0
00:23 15.1 12.1 82 1019.0 0.7 N 2.2 0.0 0.0
00:24 15.1 12.1 82 1019.0 0.7 N 2.2 0.0 0.0
00:25 15.1 12.1 82 1019.1 1.6 NW 2.2 0.0 0.0
00:26 15.1 12.1 82 1019.1 2.2 NW 2.2 0.0 0.0
00:27 15.1 12.1 82 1018.9 1.6 NW 2.2 0.0 0.0
00:28 15.1 12.1 82 1019.0 1.6 NW 2.2 0.0 0.0
00:29 15.0 12.0 82 1019.0 2.2 NW 3.1 0.0 0.0
00:30 15.1 12.1 82 1019.1 3.1 W 3.1 0.0 0.0
00:31 15.1 12.1 82 1019.0 3.8 W 3.8 0.0 0.0
00:32 15.1 12.2 83 1018.8 2.2 NW 3.8 0.0 0.0
00:33 15.1 12.2 83 1018.9 3.1 NW 3.8 0.0 0.0
00:34 15.1 12.2 83 1018.9 1.6 N 3.8 0.0 0.0
00:35 15.0 12.1 83 1019.0 3.1 NW 3.8 0.0 0.0
00:36 15.0 12.1 83 1018.9 3.1 NW 3.8 0.0 0.0
00:37 15.0 12.1 83 1019.0 1.6 NW 3.8 0.0 0.0
00:38 15.0 12.1 83 1018.9 1.6 W 3.8 0.0 0.0
00:39 15.0 12.1 83 1018.9 2.2 NW 3.8 0.0 0.0
00:40 15.0 12.1 83 1018.8 0.7 NW 3.8 0.0 0.0
00:41 15.0 12.1 83 1018.9 0.7 NW 3.1 0.0 0.0
00:42 15.0 12.1 83 1018.9 2.2 N 3.1 0.0 0.0
00:43 15.0 12.1 83 1018.9 1.6 NW 3.1 0.0 0.0
00:44 15.0 12.1 83 1018.9 1.6 NW 3.1 0.0 0.0
00:45 15.0 12.1 83 1018.9 2.2 NW 3.1 0.0 0.0
00:46 15.0 12.1 83 1019.0 2.2 N 3.1 0.0 0.0
00:47 15.0 12.1 83 1018.8 2.2 NW 2.2 0.0 0.0
00:48 15.0 12.1 83 1018.8 1.6 W 2.2 0.0 0.0
00:49 15.0 12.1 83 1018.9 3.1 NW 3.1 0.0 0.0
00:50 15.0 12.1 83 1018.9 3.1 N 3.1 0.0 0.0
00:51 15.0 12.1 83 1018.7 3.1 W 3.1 0.0 0.0
00:52 15.0 12.1 83 1018.9 3.8 W 3.8 0.0 0.0
00:53 15.0 12.1 83 1018.9 3.1 W 3.8 0.0 0.0
00:54 15.0 12.1 83 1019.0 3.1 NW 3.8 0.0 0.0
00:55 15.0 12.1 83 1018.9 2.2 WNW 3.8 0.0 0.0
00:56 14.9 12.0 83 1018.8 3.8 W 3.8 0.0 0.0
00:57 15.0 12.1 83 1018.8 3.1 NW 3.8 0.0 0.0
00:58 15.0 12.3 84 1018.9 3.8 NW 3.8 0.0 0.0
00:59 15.0 12.3 84 1019.0 2.2 SW 3.8 0.0 0.0
01:00 15.0 12.3 84 1018.8 3.8 NW 3.8 0.0 0.0
01:01 15.0 12.3 84 1018.9 3.8 NW 3.8 0.0 0.0
01:02 15.0 12.3 84 1018.9 3.8 NW 3.8 0.0 0.0
01:03 15.0 12.3 84 1018.8 3.8 NW 3.8 0.0 0.0
01:04 15.0 12.3 84 1018.8 3.8 NW 3.8 0.0 0.0
01:05 15.0 12.3 84 1018.9 3.8 NW 3.8 0.0 0.0
01:06 14.9 12.2 84 1018.8 3.8 NW 3.8 0.0 0.0
01:07 14.9 12.2 84 1018.8 3.8 NW 3.8 0.0 0.0
01:08 14.9 12.2 84 1018.8 3.8 W 3.8 0.0 0.0
01:09 14.9 12.2 84 1018.8 3.8 NW 3.8 0.0 0.0
01:10 14.9 12.2 84 1018.9 3.8 NW 3.8 0.0 0.0
01:11 14.9 12.2 84 1018.7 4.5 NW 4.5 0.0 0.0
01:12 14.9 12.2 84 1018.8 3.8 W 4.5 0.0 0.0
01:13 14.9 12.2 84 1018.8 3.8 NW 4.5 0.0 0.0
01:14 14.9 12.2 84 1018.6 3.1 NW 4.5 0.0 0.0
01:15 14.9 12.2 84 1018.8 3.8 N 4.5 0.0 0.0
01:16 14.8 12.1 84 1018.7 3.1 W 4.5 0.0 0.0
01:17 14.9 12.2 84 1018.8 3.1 NW 4.5 0.0 0.0
01:18 14.8 12.1 84 1018.6 3.8 W 4.5 0.0 0.0
01:19 14.8 12.1 84 1018.7 2.2 NW 4.5 0.0 0.0
01:20 14.8 12.1 84 1018.7 2.2 N 4.5 0.0 0.0
01:21 14.8 12.1 84 1018.6 1.6 N 3.8 0.0 0.0
01:22 14.8 12.1 84 1018.7 3.1 NW 4.5 0.0 0.0
01:23 14.8 12.1 84 1018.7 2.2 W 4.5 0.0 0.0
01:24 14.8 12.1 84 1018.7 1.6 WNW 4.5 0.0 0.0
01:25 14.8 12.1 84 1018.7 1.6 WNW 4.5 0.0 0.0
01:26 14.8 12.1 84 1018.7 2.2 NW 4.5 0.0 0.0
01:27 14.8 12.1 84 1018.7 2.2 W 4.5 0.0 0.0
01:28 14.8 12.1 84 1018.8 2.2 NW 4.5 0.0 0.0
01:29 14.7 12.0 84 1018.8 4.5 W 4.5 0.0 0.0
01:30 14.7 12.0 84 1018.8 3.8 NW 4.5 0.0 0.0
01:31 14.7 12.0 84 1018.8 3.8 N 4.5 0.0 0.0
01:32 14.7 12.0 84 1018.8 6.0 NW 6.0 0.0 0.0
01:33 14.7 12.0 84 1018.8 4.5 W 6.0 0.0 0.0
01:34 14.7 12.0 84 1018.8 3.1 S 6.0 0.0 0.0
01:35 14.7 12.0 84 1018.8 3.8 NW 6.0 0.0 0.0
01:36 14.6 11.9 84 1018.8 3.8 W 6.0 0.0 0.0
01:37 14.6 11.9 84 1018.8 5.4 W 6.0 0.0 0.0
01:38 14.6 11.9 84 1018.8 6.0 W 6.0 0.0 0.0
01:39 14.6 11.9 84 1018.8 4.5 W 6.0 0.0 0.0
01:40 14.6 11.9 84 1018.7 4.5 W 6.0 0.0 0.0
01:41 14.6 11.9 84 1018.8 3.1 NW 6.0 0.0 0.0
01:42 14.6 11.9 84 1018.7 6.9 NW 6.9 0.0 0.0
01:43 14.6 11.9 84 1018.7 4.5 S 6.9 0.0 0.0
01:44 14.6 11.9 84 1018.7 4.5 S 6.9 0.0 0.0
01:45 14.6 11.9 84 1018.8 3.8 W 6.9 0.0 0.0
01:46 14.6 11.9 84 1018.7 4.5 NNE 6.9 0.0 0.0
01:47 14.6 11.9 84 1018.6 4.5 W 6.9 0.0 0.0
01:48 14.6 11.9 84 1018.6 4.5 SW 6.9 0.0 0.0
01:49 14.6 11.9 84 1018.7 4.5 W 6.9 0.0 0.0
01:50 14.6 11.9 84 1018.7 4.5 SW 6.9 0.0 0.0
01:51 14.6 11.9 84 1018.7 3.8 NW 6.9 0.0 0.0
01:52 14.6 11.9 84 1018.6 6.0 W 6.9 0.0 0.0
01:53 14.6 11.9 84 1018.6 3.8 NNW 6.9 0.0 0.0
01:54 14.6 11.9 84 1018.6 3.1 W 6.0 0.0 0.0
01:55 14.6 11.9 84 1018.6 4.5 W 6.0 0.0 0.0
01:56 14.6 11.9 84 1018.6 5.4 NW 6.0 0.0 0.0
01:57 14.6 12.1 85 1018.6 5.4 W 6.0 0.0 0.0
01:58 14.6 11.9 84 1018.5 5.4 NW 6.0 0.0 0.0
01:59 14.6 11.9 84 1018.5 6.9 NW 6.9 0.0 0.0
02:00 14.6 12.1 85 1018.6 5.4 NW 6.9 0.0 0.0
02:01 14.6 12.1 85 1018.5 5.4 NW 6.9 0.0 0.0
02:02 14.6 12.1 85 1018.6 3.8 NW 6.9 0.0 0.0
02:03 14.6 12.1 85 1018.6 3.8 NW 6.9 0.0 0.0
02:04 14.6 12.1 85 1018.6 3.8 NW 6.9 0.0 0.0
02:05 14.6 12.1 85 1018.6 7.6 W 7.6 0.0 0.0
02:06 14.6 12.1 85 1018.7 5.4 NW 7.6 0.0 0.0
02:07 14.6 12.1 85 1018.6 6.0 NW 7.6 0.0 0.0
02:08 14.6 12.1 85 1018.6 5.4 S 7.6 0.0 0.0
02:09 14.6 12.1 85 1018.7 4.5 W 7.6 0.0 0.0
02:10 14.6 12.1 85 1018.5 4.5 W 7.6 0.0 0.0
02:11 14.6 12.1 85 1018.5 4.5 SW 7.6 0.0 0.0
02:12 14.6 12.1 85 1018.6 5.4 NW 7.6 0.0 0.0
02:13 14.6 12.1 85 1018.6 3.8 W 7.6 0.0 0.0
02:14 14.6 12.1 85 1018.6 6.9 NW 7.6 0.0 0.0
02:15 14.6 12.1 85 1018.6 2.2 W 6.9 0.0 0.0
02:16 14.6 12.1 85 1018.6 3.8 W 6.9 0.0 0.0
02:17 14.6 12.1 85 1018.6 3.8 W 6.9 0.0 0.0
02:18 14.6 12.1 85 1018.6 5.4 NW 6.9 0.0 0.0
02:19 14.6 12.1 85 1018.7 3.8 W 6.9 0.0 0.0
02:20 14.6 12.1 85 1018.6 5.4 W 6.9 0.0 0.0
02:21 14.6 12.1 85 1018.6 3.1 NW 6.9 0.0 0.0
02:22 14.6 12.1 85 1018.6 3.1 W 6.9 0.0 0.0
02:23 14.6 12.1 85 1018.7 4.5 NW 6.9 0.0 0.0
02:24 14.6 12.1 85 1018.5 3.1 N 6.9 0.0 0.0
02:25 14.6 12.1 85 1018.7 5.4 W 6.9 0.0 0.0
02:26 14.6 12.1 85 1018.4 5.4 W 5.4 0.0 0.0
02:27 14.6 12.1 85 1018.6 3.8 W 5.4 0.0 0.0
02:28 14.6 12.1 85 1018.6 3.8 WSW 5.4 0.0 0.0
02:29 14.6 12.1 85 1018.5 5.4 W 5.4 0.0 0.0
02:30 14.6 12.1 85 1018.5 5.4 SW 5.4 0.0 0.0
02:31 14.6 12.1 85 1018.6 3.8 NW 5.4 0.0 0.0
02:32 14.6 12.1 85 1018.6 3.1 NW 5.4 0.0 0.0
02:33 14.5 12.0 85 1018.6 2.2 N 5.4 0.0 0.0
02:34 14.6 12.1 85 1018.6 2.2 W 5.4 0.0 0.0
02:35 14.6 12.1 85 1018.5 3.1 W 5.4 0.0 0.0
02:36 14.5 12.0 85 1018.5 3.8 N 5.4 0.0 0.0
02:37 14.5 12.0 85 1018.5 3.8 SW 5.4 0.0 0.0
02:38 14.5 12.0 85 1018.6 3.8 W 5.4 0.0 0.0
02:39 14.5 12.0 85 1018.5 3.1 NW 5.4 0.0 0.0
02:40 14.5 12.0 85 1018.5 2.2 NW 3.8 0.0 0.0
02:41 14.5 12.0 85 1018.5 2.2 NW 3.8 0.0 0.0
02:42 14.5 12.0 85 1018.5 2.2 W 3.8 0.0 0.0
02:43 14.5 12.0 85 1018.5 3.8 NW 3.8 0.0 0.0
02:44 14.5 12.0 85 1018.5 4.5 W 4.5 0.0 0.0
02:45 14.6 12.1 85 1018.5 3.1 SW 4.5 0.0 0.0
02:46 14.5 12.0 85 1018.5 3.1 W 4.5 0.0 0.0
02:47 14.6 12.1 85 1018.4 3.1 W 4.5 0.0 0.0
02:48 14.5 12.0 85 1018.5 3.1 W 4.5 0.0 0.0
02:49 14.6 12.1 85 1018.4 6.0 W 6.0 0.0 0.0
02:50 14.6 12.1 85 1018.4 4.5 NW 6.0 0.0 0.0
02:51 14.6 12.1 85 1018.6 4.5 NW 6.0 0.0 0.0
02:52 14.6 12.1 85 1018.4 3.8 W 6.0 0.0 0.0
02:53 14.6 12.3 86 1018.5 3.8 WNW 6.0 0.0 0.0
02:54 14.6 12.3 86 1018.4 5.4 W 6.0 0.0 0.0
02:55 14.6 12.3 86 1018.4 5.4 SW 6.0 0.0 0.0
02:56 14.7 12.4 86 1018.4 2.2 W 6.0 0.0 0.0
02:57 14.7 12.4 86 1018.4 3.8 NW 6.0 0.0 0.0
02:58 14.7 12.4 86 1018.4 5.4 N 6.0 0.0 0.0
02:59 14.7 12.4 86 1018.5 3.8 W 5.4 0.0 0.0
03:00 14.7 12.4 86 1018.5 3.8 W 5.4 0.0 0.0
03:01 14.7 12.4 86 1018.3 3.8 NW 5.4 0.0 0.0
03:02 14.7 12.4 86 1018.4 3.8 NW 5.4 0.0 0.0
03:03 14.7 12.4 86 1018.4 3.8 NW 5.4 0.0 0.0
03:04 14.7 12.4 86 1018.6 3.8 NW 5.4 0.0 0.0
03:05 14.7 12.4 86 1018.4 3.8 NW 5.4 0.0 0.0
03:06 14.8 12.5 86 1018.2 6.0 W 6.0 0.0 0.0
03:07 14.8 12.5 86 1018.4 3.8 NW 6.0 0.0 0.0
03:08 14.8 12.5 86 1018.4 4.5 WNW 6.0 0.0 0.0
03:09 14.8 12.5 86 1018.4 6.9 N 6.9 0.0 0.0
03:10 14.8 12.5 86 1018.3 4.5 WNW 6.9 0.0 0.0
03:11 14.9 12.6 86 1018.5 3.8 NW 6.9 0.0 0.0
03:12 14.9 12.6 86 1018.3 4.5 NW 6.9 0.0 0.0
03:13 14.9 12.6 86 1018.3 8.3 NW 8.3 0.0 0.0
03:14 14.9 12.6 86 1018.4 5.4 SW 8.3 0.0 0.0
03:15 15.0 12.7 86 1018.4 4.5 N 8.3 0.0 0.0
03:16 15.0 12.7 86 1018.4 6.0 NW 8.3 0.0 0.0
03:17 15.0 12.7 86 1018.3 3.8 W 8.3 0.0 0.0
03:18 15.0 12.9 87 1018.3 5.4 W 8.3 0.0 0.0
03:19 15.0 12.9 87 1018.3 5.4 W 8.3 0.0 0.0
03:20 15.0 12.7 86 1018.4 5.4 NW 8.3 0.0 0.0
03:21 15.0 12.9 87 1018.3 4.5 W 8.3 0.0 0.0
03:22 15.1 12.8 86 1018.3 8.3 NW 8.3 0.0 0.0
03:23 15.0 12.7 86 1018.3 6.0 NW 8.3 0.0 0.0
03:24 15.1 12.8 86 1018.4 8.3 NW 8.3 0.0 0.0
03:25 15.1 12.8 86 1018.3 6.0 W 8.3 0.0 0.0
03:26 15.1 12.8 86 1018.5 4.5 SW 8.3 0.0 0.0
03:27 15.1 12.8 86 1018.3 3.8 W 8.3 0.0 0.0
03:28 15.1 13.0 87 1018.5 6.9 W 8.3 0.0 0.0
03:29 15.1 12.8 86 1018.3 5.4 NW 8.3 0.0 0.0
03:30 15.1 12.8 86 1018.4 3.1 WNW 8.3 0.0 0.0
03:31 15.1 12.8 86 1018.4 6.9 SW 8.3 0.0 0.0
03:32 15.1 12.8 86 1018.3 7.6 NW 8.3 0.0 0.0
03:33 15.1 12.8 86 1018.5 6.0 W 8.3 0.0 0.0
03:34 15.1 12.8 86 1018.3 5.4 W 7.6 0.0 0.0
03:35 15.1 12.8 86 1018.4 5.4 W 7.6 0.0 0.0
03:36 15.2 12.9 86 1018.5 5.4 NW 7.6 0.0 0.0
03:37 15.1 12.8 86 1018.3 3.8 W 7.6 0.0 0.0
03:38 15.2 12.9 86 1018.4 5.4 NW 7.6 0.0 0.0
03:39 15.1 12.8 86 1018.3 5.4 NW 7.6 0.0 0.0
03:40 15.2 12.9 86 1018.3 6.0 NW 7.6 0.0 0.0
03:41 15.2 12.9 86 1018.3 3.8 SW 7.6 0.0 0.0
03:42 15.2 12.9 86 1018.4 4.5 N 7.6 0.0 0.0
03:43 15.2 12.9 86 1018.4 5.4 SW 6.0 0.0 0.0
03:44 15.2 12.9 86 1018.3 3.8 NW 6.0 0.0 0.0
03:45 15.2 12.9 86 1018.2 3.1 WSW 6.0 0.0 0.0
03:46 15.2 12.9 86 1018.2 5.4 NW 6.0 0.0 0.0
03:47 15.2 12.9 86 1018.2 5.4 N 6.0 0.0 0.0
03:49 15.2 12.9 86 1018.3 6.9 NW 6.9 0.0 0.0
03:50 15.2 12.9 86 1018.2 4.5 W 6.9 0.0 0.0
03:51 15.2 12.9 86 1018.2 4.5 NW 6.9 0.0 0.0
03:53 15.2 12.9 86 1018.3 3.8 W 6.9 0.0 0.0
03:55 15.2 12.9 86 1018.2 3.8 W 6.9 0.0 0.0
03:56 15.2 12.7 85 1018.2 4.5 SW 6.9 0.0 0.0
03:57 15.2 12.7 85 1018.2 6.0 W 6.9 0.0 0.0
03:58 15.2 12.7 85 1018.2 5.4 WSW 6.9 0.0 0.0
03:59 15.2 12.7 85 1018.2 3.8 W 6.9 0.0 0.0
04:00 15.2 12.7 85 1018.2 5.4 W 6.0 0.0 0.0
04:01 15.2 12.7 85 1018.2 3.8 W 6.0 0.0 0.0
04:02 15.2 12.7 85 1018.3 3.8 W 6.0 0.0 0.0
04:03 15.2 12.7 85 1018.3 3.8 W 6.0 0.0 0.0
04:04 15.2 12.7 85 1018.3 3.8 W 6.0 0.0 0.0
04:05 15.2 12.7 85 1018.3 3.8 W 6.0 0.0 0.0
04:06 15.2 12.7 85 1018.3 4.5 SW 6.0 0.0 0.0
04:07 15.2 12.7 85 1018.1 4.5 WSW 5.4 0.0 0.0
04:08 15.2 12.7 85 1018.2 3.8 NW 5.4 0.0 0.0
04:09 15.1 12.6 85 1018.3 2.2 NW 5.4 0.0 0.0
04:10 15.2 12.7 85 1018.3 3.1 SW 4.5 0.0 0.0
04:11 15.1 12.6 85 1018.3 3.8 SW 4.5 0.0 0.0
04:12 15.1 12.6 85 1018.3 4.5 WSW 4.5 0.0 0.0
04:13 15.1 12.6 85 1018.3 5.4 NW 5.4 0.0 0.0
04:14 15.1 12.6 85 1018.2 3.8 WSW 5.4 0.0 0.0
04:15 15.1 12.6 85 1018.3 3.1 W 5.4 0.0 0.0
04:16 15.1 12.6 85 1018.1 3.8 W 5.4 0.0 0.0
04:17 15.1 12.6 85 1018.2 3.8 W 5.4 0.0 0.0
04:18 15.1 12.6 85 1018.2 5.4 SW 5.4 0.0 0.0
04:20 15.0 12.3 84 1018.3 3.1 W 5.4 0.0 0.0
04:21 15.0 12.5 85 1018.1 3.8 SW 5.4 0.0 0.0
04:22 15.0 12.3 84 1018.1 4.5 W 5.4 0.0 0.0
04:23 15.0 12.3 84 1018.1 3.1 N 5.4 0.0 0.0
04:24 15.0 12.3 84 1018.1 3.8 SW 5.4 0.0 0.0
04:25 15.0 12.3 84 1018.2 5.4 W 5.4 0.0 0.0
04:26 15.0 12.3 84 1018.1 5.4 W 5.4 0.0 0.0
04:27 15.0 12.3 84 1018.3 5.4 W 5.4 0.0 0.0
04:28 15.0 12.3 84 1018.3 5.4 W 5.4 0.0 0.0
04:29 15.0 12.3 84 1018.2 5.4 W 5.4 0.0 0.0
04:30 15.0 12.3 84 1018.3 5.4 W 5.4 0.0 0.0
04:31 15.0 12.3 84 1018.1 5.4 W 5.4 0.0 0.0
04:32 15.0 12.3 84 1018.1 5.4 W 5.4 0.0 0.0
04:33 14.8 12.1 84 1018.2 4.5 W 5.4 0.0 0.0
04:34 14.8 12.1 84 1018.2 4.5 SW 5.4 0.0 0.0
04:35 14.8 12.1 84 1017.8 3.8 W 5.4 0.0 0.0
04:36 14.8 12.1 84 1018.0 3.8 SW 5.4 0.0 0.0
04:37 14.8 12.1 84 1018.1 4.5 W 5.4 0.0 0.0
04:38 14.8 12.1 84 1017.9 6.0 W 6.0 0.0 0.0
04:39 14.7 12.0 84 1018.0 6.0 SW 6.0 0.0 0.0
04:40 14.7 12.0 84 1018.1 5.4 W 6.0 0.0 0.0
04:41 14.7 12.0 84 1018.0 4.5 NW 6.0 0.0 0.0
04:42 14.6 11.9 84 1018.0 4.5 SW 6.0 0.0 0.0
04:43 14.6 11.9 84 1017.9 5.4 SW 6.0 0.0 0.0
04:44 14.6 11.9 84 1018.0 5.4 SW 6.0 0.0 0.0
04:45 14.6 11.9 84 1018.0 5.4 SW 6.0 0.0 0.0
04:46 14.6 11.9 84 1018.0 4.5 W 6.0 0.0 0.0
04:47 14.5 11.8 84 1018.0 3.1 W 6.0 0.0 0.0
04:48 14.5 11.8 84 1018.0 3.8 SW 6.0 0.0 0.0
04:49 14.5 11.8 84 1018.0 3.8 W 6.0 0.0 0.0
04:50 14.4 11.7 84 1017.9 3.8 W 5.4 0.0 0.0
04:51 14.4 11.7 84 1018.0 6.0 W 6.0 0.0 0.0
04:52 14.3 11.6 84 1018.0 3.1 S 6.0 0.0 0.0
04:53 14.3 11.6 84 1017.8 5.4 W 6.0 0.0 0.0
04:54 14.3 11.6 84 1017.9 3.1 W 6.0 0.0 0.0
04:55 14.3 11.6 84 1017.9 4.5 SW 6.0 0.0 0.0
04:56 14.3 11.6 84 1017.8 5.4 W 6.0 0.0 0.0
04:57 14.2 11.5 84 1017.8 3.8 NW 6.0 0.0 0.0
04:58 14.2 11.5 84 1017.8 4.5 W 6.0 0.0 0.0
04:59 14.2 11.5 84 1017.8 4.5 W 6.0 0.0 0.0
05:00 14.2 11.5 84 1017.9 3.1 NW 6.0 0.0 0.0
05:01 14.2 11.5 84 1017.9 2.2 W 5.4 0.0 0.0
05:02 14.1 11.4 84 1017.7 3.8 SW 5.4 0.0 0.0
05:03 14.1 11.4 84 1018.0 3.8 W 5.4 0.0 0.0
05:04 14.1 11.4 84 1017.9 3.1 S 5.4 0.0 0.0
05:05 14.1 11.4 84 1018.1 3.8 N 5.4 0.0 0.0
05:06 14.1 11.4 84 1018.2 3.8 NW 5.4 0.0 0.0
05:07 14.1 11.4 84 1018.0 3.8 NW 4.5 0.0 0.0
05:08 14.0 11.3 84 1017.9 2.2 NE 4.5 0.0 0.0
05:09 14.0 11.3 84 1017.9 3.1 NW 4.5 0.0 0.0
05:10 14.0 11.3 84 1017.9 3.1 NW 4.5 0.0 0.0
05:11 14.0 11.3 84 1017.9 2.2 N 4.5 0.0 0.0
05:12 14.0 11.3 84 1017.8 3.1 WNW 4.5 0.0 0.0
05:13 14.0 11.3 84 1017.8 3.8 NW 4.5 0.0 0.0
05:14 14.0 11.3 84 1017.8 3.1 NW 4.5 0.0 0.0
05:15 13.9 11.2 84 1017.7 3.1 W 4.5 0.0 0.0
05:16 13.9 11.2 84 1017.8 3.1 NW 4.5 0.0 0.0
05:17 13.9 11.2 84 1017.8 3.8 NW 4.5 0.0 0.0
05:18 13.9 11.2 84 1017.9 3.8 NW 3.8 0.0 0.0
05:19 13.9 11.2 84 1017.8 3.8 NW 3.8 0.0 0.0
05:20 13.9 11.2 84 1017.9 3.1 NW 3.8 0.0 0.0
05:21 13.8 11.1 84 1017.8 3.8 W 4.5 0.0 0.0
05:22 13.8 11.1 84 1017.8 3.1 NW 4.5 0.0 0.0
05:24 13.8 11.1 84 1017.8 2.2 W 4.5 0.0 0.0
05:25 13.8 11.1 84 1017.8 3.8 W 4.5 0.0 0.0
05:26 13.8 11.1 84 1017.8 3.1 NW 4.5 0.0 0.0
05:27 13.7 11.1 84 1017.8 2.2 N 4.5 0.0 0.0
05:28 13.7 11.1 84 1017.8 0.7 N 4.5 0.0 0.0
05:29 13.7 11.1 84 1017.7 2.2 NW 4.5 0.0 0.0
05:30 13.7 11.1 84 1017.7 2.2 NW 4.5 0.0 0.0
05:31 13.7 11.1 84 1017.8 1.6 N 3.8 0.0 0.0
05:32 13.7 11.1 84 1017.6 0.7 NW 3.8 0.0 0.0
05:33 13.7 11.1 84 1017.8 0.0 NW 3.8 0.0 0.0
05:34 13.6 11.0 84 1017.7 2.2 NW 3.8 0.0 0.0
05:35 13.6 11.0 84 1017.8 1.6 N 3.8 0.0 0.0
05:36 13.6 11.0 84 1017.8 0.7 N 3.8 0.0 0.0
05:38 13.6 11.0 84 1017.8 0.7 NW 2.2 0.0 0.0
05:39 13.6 11.0 84 1017.6 0.7 NW 2.2 0.0 0.0
05:40 13.6 11.0 84 1017.7 0.7 NW 2.2 0.0 0.0
05:41 13.5 10.9 84 1017.7 0.7 NW 2.2 0.0 0.0
05:42 13.5 10.9 84 1017.8 0.0 NW 2.2 0.0 0.0
05:43 13.5 10.9 84 1017.8 0.0 NW 2.2 0.0 0.0
05:44 13.5 10.9 84 1017.7 0.7 NW 2.2 0.0 0.0
05:45 13.5 10.9 84 1017.7 0.7 NW 1.6 0.0 0.0
05:46 13.5 10.9 84 1017.8 0.7 NW 1.6 0.0 0.0
05:47 13.5 10.9 84 1017.7 1.6 NW 1.6 0.0 0.0
05:48 13.4 10.8 84 1017.8 0.7 NW 1.6 0.0 0.0
05:49 13.4 10.8 84 1017.7 0.7 NW 1.6 0.0 0.0
05:50 13.4 10.8 84 1017.8 0.7 NW 1.6 0.0 0.0
05:52 13.4 10.8 84 1017.8 1.6 W 1.6 0.0 0.0
05:53 13.3 10.7 84 1017.7 1.6 NW 1.6 0.0 0.0
05:54 13.3 10.7 84 1017.6 0.0 NW 1.6 0.0 0.0
05:55 13.3 10.7 84 1017.7 0.7 NW 1.6 0.0 0.0
05:56 13.3 10.7 84 1017.7 3.1 W 3.1 0.0 0.0
05:57 13.3 10.7 84 1017.6 0.7 NW 3.1 0.0 0.0
05:58 13.3 10.7 84 1017.6 0.7 NW 3.1 0.0 0.0
05:59 13.3 10.7 84 1017.6 0.7 NW 3.1 0.0 0.0
06:00 13.3 10.7 84 1017.7 0.0 NW 3.1 0.0 0.0
06:01 13.3 10.7 84 1017.7 0.7 WNW 3.1 0.0 0.0
06:02 13.2 10.6 84 1017.7 0.7 N 3.1 0.0 0.0
06:03 13.2 10.6 84 1017.7 0.7 N 3.1 0.0 0.0
06:04 13.2 10.6 84 1017.7 0.0 N 3.1 0.0 0.0
06:05 13.2 10.6 84 1017.7 0.0 N 3.1 0.0 0.0
06:06 13.2 10.6 84 1017.7 1.6 NW 2.2 0.0 0.0
06:07 13.2 10.6 84 1017.6 0.7 NW 1.6 0.0 0.0
06:08 13.2 10.6 84 1017.6 0.7 NW 1.6 0.0 0.0
06:09 13.2 10.6 84 1017.5 0.0 N 1.6 0.0 0.0
06:10 13.1 10.5 84 1017.6 0.7 NW 1.6 0.0 0.0
06:11 13.1 10.5 84 1017.8 0.7 NW 1.6 0.0 0.0
06:12 13.1 10.5 84 1017.7 1.6 NW 1.6 0.0 0.0
06:13 13.1 10.5 84 1017.7 0.7 NE 1.6 0.0 0.0
06:14 13.1 10.6 85 1017.5 0.7 N 1.6 0.0 0.0
06:15 13.1 10.5 84 1017.6 1.6 NW 1.6 0.0 0.0
06:16 13.1 10.5 84 1017.5 0.7 NW 1.6 0.0 0.0
06:17 13.1 10.6 85 1017.6 0.7 N 1.6 0.0 0.0
06:18 13.1 10.6 85 1017.6 0.7 N 1.6 0.0 0.0
06:19 13.1 10.6 85 1017.7 3.1 W 3.1 0.0 0.0
06:21 13.1 10.6 85 1017.7 0.7 N 3.1 0.0 0.0
06:22 13.1 10.6 85 1017.6 1.6 W 3.1 0.0 0.0
06:23 13.1 10.6 85 1017.6 1.6 NW 3.1 0.0 0.0
06:24 13.1 10.6 85 1017.7 1.6 NW 3.1 0.0 0.0
06:25 13.1 10.6 85 1017.7 1.6 NW 3.1 0.0 0.0
06:26 13.1 10.6 85 1017.7 1.6 NW 3.1 0.0 0.0
06:27 13.1 10.6 85 1017.7 1.6 N 3.1 0.0 0.0
06:28 13.1 10.6 85 1017.6 0.7 N 3.1 0.0 0.0
06:29 13.1 10.6 85 1017.8 0.7 NW 3.1 0.0 0.0
06:30 13.1 10.6 85 1017.7 0.7 NW 2.2 0.0 0.0
06:31 13.2 10.7 85 1017.5 1.6 N 2.2 0.0 0.0
06:32 13.1 10.6 85 1017.8 1.6 NW 2.2 0.0 0.0
06:33 13.2 10.7 85 1017.8 0.7 N 2.2 0.0 0.0
06:35 13.2 10.7 85 1017.7 0.7 NW 1.6 0.0 0.0
06:36 13.2 10.9 86 1017.8 0.7 NW 1.6 0.0 0.0
06:37 13.2 10.7 85 1017.6 0.0 NW 1.6 0.0 0.0
06:38 13.2 10.9 86 1017.7 0.7 N 1.6 0.0 0.0
06:39 13.2 10.9 86 1017.7 0.7 N 1.6 0.0 0.0
06:40 13.2 10.9 86 1017.7 0.7 N 1.6 0.0 0.0
06:41 13.2 10.9 86 1017.6 0.7 NW 1.6 0.0 0.0
06:42 13.3 11.0 86 1017.8 0.0 NW 1.6 0.0 0.0
06:43 13.3 11.0 86 1017.7 0.0 NW 1.6 0.0 0.0
06:44 13.3 11.0 86 1017.8 0.7 NW 1.6 0.0 0.0
06:45 13.3 11.0 86 1017.6 0.0 NW 0.7 0.0 0.0
06:46 13.3 11.0 86 1017.7 0.0 NW 0.7 0.0 0.0
06:47 13.3 11.0 86 1017.7 0.0 NW 0.7 0.0 0.0
06:49 13.3 11.0 86 1017.7 0.7 SW 0.7 0.0 0.0
06:50 13.4 11.1 86 1017.6 0.0 SW 0.7 0.0 0.0
06:51 13.4 11.1 86 1017.7 0.0 SW 0.7 0.0 0.0
06:52 13.4 11.1 86 1017.7 0.0 SW 0.7 0.0 0.0
06:53 13.4 11.1 86 1017.6 0.0 SW 0.7 0.0 0.0
06:54 13.4 11.1 86 1017.7 0.0 NW 0.7 0.0 0.0
06:55 13.4 11.1 86 1017.6 0.7 SW 0.7 0.0 0.0
06:56 13.4 11.1 86 1017.7 1.6 W 1.6 0.0 0.0
06:57 13.5 11.4 87 1017.7 2.2 SW 2.2 0.0 0.0
06:58 13.5 11.2 86 1017.6 2.2 SW 2.2 0.0 0.0
06:59 13.5 11.4 87 1017.7 2.2 SW 2.2 0.0 0.0
07:00 13.5 11.4 87 1017.7 2.2 SW 2.2 0.0 0.0
07:01 13.5 11.4 87 1017.7 2.2 W 2.2 0.0 0.0
07:02 13.6 11.5 87 1017.5 2.2 NW 2.2 0.0 0.0
07:04 13.6 11.5 87 1017.7 2.2 S 2.2 0.0 0.0
07:06 13.7 11.6 87 1017.6 2.2 WSW 3.1 0.0 0.0
07:07 13.7 11.6 87 1017.6 3.1 SW 3.1 0.0 0.0
07:08 13.8 11.7 87 1017.6 3.1 SW 3.1 0.0 0.0
07:09 13.8 11.7 87 1017.7 3.1 SW 3.1 0.0 0.0
07:10 13.9 12.0 88 1017.5 3.8 W 3.8 0.0 0.0
07:11 13.9 12.0 88 1017.8 3.1 W 3.8 0.0 0.0
07:12 14.0 12.0 88 1017.5 3.8 W 3.8 0.0 0.0
07:13 14.0 12.0 88 1017.7 4.5 W 4.5 0.0 0.0
07:14 14.1 12.1 88 1017.6 5.4 S 5.4 0.0 0.0
07:15 14.1 12.1 88 1017.8 3.1 NW 5.4 0.0 0.0
07:16 14.2 12.2 88 1017.7 4.5 SW 5.4 0.0 0.0
07:17 14.2 12.2 88 1017.6 5.4 SW 5.4 0.0 0.0
07:18 14.2 12.2 88 1017.7 4.5 SW 5.4 0.0 0.0
07:19 14.4 12.4 88 1017.8 5.4 W 5.4 0.0 0.0
07:21 14.4 12.4 88 1017.7 3.1 W 5.4 0.0 0.0
07:22 14.5 12.5 88 1017.7 4.5 WSW 5.4 0.0 0.0
07:23 14.5 12.5 88 1017.7 4.5 WSW 5.4 0.0 0.0
07:24 14.6 12.6 88 1017.6 5.4 SW 5.4 0.0 0.0
07:25 14.6 12.6 88 1017.6 4.5 SW 5.4 0.0 0.0
07:26 14.7 12.9 89 1017.6 6.0 SW 6.0 0.0 0.0
07:27 14.7 12.7 88 1017.7 4.5 NW 6.0 0.0 0.0
07:28 14.8 12.8 88 1017.5 4.5 NW 6.0 0.0 0.0
07:29 14.8 12.8 88 1017.7 3.1 SW 6.0 0.0 0.0
07:30 14.9 12.9 88 1017.7 6.0 WNW 6.0 0.0 0.0
07:31 14.9 12.9 88 1017.5 5.4 W 6.0 0.0 0.0
07:32 15.0 13.0 88 1017.6 6.0 SW 6.0 0.0 0.0
07:33 15.0 13.0 88 1017.5 5.4 SW 6.0 0.0 0.0
07:35 15.1 13.1 88 1017.5 6.0 NW 6.0 0.0 0.0
07:36 15.1 13.1 88 1017.6 5.4 SW 6.0 0.0 0.0
07:37 15.2 13.2 88 1017.5 4.5 W 6.0 0.0 0.0
07:38 15.2 13.2 88 1017.5 2.2 N 6.0 0.0 0.0
07:39 15.2 13.2 88 1017.7 4.5 W 6.0 0.0 0.0
07:40 15.2 13.2 88 1017.7 4.5 W 6.0 0.0 0.0
07:41 15.3 13.3 88 1017.6 3.1 NW 6.0 0.0 0.0
07:42 15.3 13.3 88 1017.7 3.8 E 6.0 0.0 0.0
07:43 15.3 13.3 88 1017.6 5.4 W 6.0 0.0 0.0
07:44 15.4 13.4 88 1017.6 3.1 NW 6.0 0.0 0.0
07:45 15.4 13.3 87 1017.7 2.2 N 6.0 0.0 0.0
07:46 15.4 13.3 87 1017.7 3.8 E 5.4 0.0 0.0
07:47 15.4 13.3 87 1017.7 2.2 W 5.4 0.0 0.0
07:49 15.4 13.3 87 1017.5 3.1 NW 5.4 0.0 0.0
07:50 15.5 13.4 87 1017.6 5.4 SW 5.4 0.0 0.0
07:51 15.5 13.4 87 1017.6 3.8 W 5.4 0.0 0.0
07:52 15.5 13.4 87 1017.5 3.1 WSW 5.4 0.0 0.0
07:53 15.5 13.4 87 1017.6 3.8 NW 5.4 0.0 0.0
07:54 15.5 13.4 87 1017.5 3.1 S 5.4 0.0 0.0
07:55 15.5 13.4 87 1017.5 3.8 W 5.4 0.0 0.0
07:56 15.5 13.2 86 1017.6 3.8 WNW 5.4 0.0 0.0
07:57 15.5 13.2 86 1017.5 4.5 W 5.4 0.0 0.0
07:58 15.5 13.2 86 1017.6 3.1 W 5.4 0.0 0.0
07:59 15.6 13.3 86 1017.5 3.1 W 5.4 0.0 0.0
08:00 15.6 13.3 86 1017.5 3.8 W 5.4 0.0 0.0
08:01 15.6 13.3 86 1017.6 3.1 W 4.5 0.0 0.0
08:03 15.6 13.3 86 1017.5 2.2 W 4.5 0.0 0.0
08:04 15.6 13.3 86 1017.6 3.1 NW 4.5 0.0 0.0
08:05 15.6 13.3 86 1017.6 3.1 SW 4.5 0.0 0.0
08:06 15.6 13.3 86 1017.5 3.8 W 4.5 0.0 0.0
08:07 15.6 13.3 86 1017.5 3.8 W 4.5 0.0 0.0
08:08 15.6 13.1 85 1017.5 5.4 W 5.4 0.0 0.0
08:09 15.6 13.1 85 1017.6 5.4 SW 5.4 0.0 0.0
08:10 15.6 13.1 85 1017.7 5.4 SW 5.4 0.0 0.0
08:11 15.6 13.1 85 1017.4 1.6 W 5.4 0.0 0.0
08:12 15.7 13.2 85 1017.6 5.4 SW 5.4 0.0 0.0
08:13 15.7 13.2 85 1017.5 6.0 SW 6.0 0.0 0.0
08:14 15.7 13.2 85 1017.7 3.1 N 6.0 0.0 0.0
08:15 15.7 13.2 85 1017.7 2.2 NW 6.0 0.0 0.0
08:17 15.7 13.2 85 1017.7 4.5 W 6.0 0.0 0.0
08:18 15.7 13.2 85 1017.7 4.5 W 6.0 0.0 0.0
08:19 15.7 13.2 85 1017.7 7.6 WNW 7.6 0.0 0.0
08:20 15.7 13.2 85 1017.6 5.4 W 7.6 0.0 0.0
08:21 15.8 13.3 85 1017.7 7.6 NW 7.6 0.0 0.0
08:22 15.8 13.3 85 1017.6 4.5 NW 7.6 0.0 0.0
08:23 15.8 13.3 85 1017.7 4.5 NW 7.6 0.0 0.0
08:24 15.8 13.3 85 1017.8 4.5 SW 7.6 0.0 0.0
08:25 15.8 13.3 85 1017.7 6.0 NW 7.6 0.0 0.0
08:26 15.9 13.4 85 1017.7 6.0 NW 7.6 0.0 0.0
08:27 15.9 13.2 84 1017.6 6.0 NW 7.6 0.0 0.0
08:28 15.9 13.2 84 1017.7 6.0 NW 7.6 0.0 0.0
08:29 16.0 13.3 84 1017.8 6.0 NW 7.6 0.0 0.0
08:31 16.1 13.4 84 1017.7 6.0 NE 6.0 0.0 0.0
08:32 16.1 13.4 84 1017.8 6.9 WNW 6.9 0.0 0.0
08:33 16.1 13.4 84 1017.7 5.4 NW 6.9 0.0 0.0
08:34 16.2 13.5 84 1017.8 4.5 WSW 6.9 0.0 0.0
08:35 16.2 13.5 84 1017.8 4.5 WSW 6.9 0.0 0.0
08:36 16.2 13.5 84 1017.8 5.4 SW 6.9 0.0 0.0
08:37 16.2 13.5 84 1017.8 7.6 SW 7.6 0.0 0.0
08:38 16.3 13.6 84 1017.8 5.4 W 7.6 0.0 0.0
08:39 16.3 13.4 83 1017.6 6.9 NW 7.6 0.0 0.0
08:40 16.3 13.6 84 1017.7 6.0 W 7.6 0.0 0.0
08:41 16.3 13.4 83 1017.6 4.5 W 7.6 0.0 0.0
08:42 16.3 13.4 83 1017.8 6.0 NW 7.6 0.0 0.0
08:43 16.4 13.5 83 1017.8 5.4 WNW 7.6 0.0 0.0
08:45 16.4 13.5 83 1017.8 5.4 W 7.6 0.0 0.0
08:46 16.4 13.5 83 1017.8 7.6 SW 7.6 0.0 0.0
08:47 16.5 13.4 82 1017.8 9.2 NW 9.2 0.0 0.0
08:48 16.4 13.3 82 1017.8 6.9 NW 9.2 0.0 0.0
08:49 16.5 13.4 82 1017.8 6.9 E 9.2 0.0 0.0
08:50 16.5 13.4 82 1017.8 3.8 NW 9.2 0.0 0.0
08:51 16.5 13.4 82 1017.9 6.9 NW 9.2 0.0 0.0
08:52 16.6 13.5 82 1017.8 8.3 S 9.2 0.0 0.0
08:53 16.5 13.4 82 1017.7 6.0 NW 9.2 0.0 0.0
08:54 16.6 13.5 82 1017.8 7.6 NW 9.2 0.0 0.0
08:55 16.6 13.5 82 1017.6 4.5 NW 9.2 0.0 0.0
08:56 16.6 13.3 81 1017.8 6.0 NW 9.2 0.0 0.0
08:57 16.6 13.3 81 1017.6 6.9 SW 9.2 0.0 0.0
08:59 16.7 13.4 81 1017.8 4.5 W 8.3 0.0 0.0
09:00 16.7 13.4 81 1017.8 6.0 W 8.3 0.0 0.0
09:01 16.7 13.4 81 1017.6 9.2 SW 9.2 0.0 0.0
09:02 16.7 13.4 81 1017.8 6.9 W 9.2 0.0 0.0
09:03 16.7 13.4 81 1017.8 5.4 W 9.2 0.0 0.0
09:04 16.7 13.4 81 1017.7 4.5 NW 9.2 0.0 0.0
09:05 16.8 13.3 80 1017.7 6.0 NW 9.2 0.0 0.0
09:06 16.8 13.3 80 1017.7 8.3 W 9.2 0.0 0.0
09:07 16.8 13.3 80 1017.7 8.3 NW 9.2 0.0 0.0
09:08 16.8 13.3 80 1017.8 7.6 W 9.2 0.0 0.0
09:09 16.9 13.4 80 1017.7 6.0 N 9.2 0.0 0.0
09:10 16.9 13.4 80 1017.8 3.8 SW 9.2 0.0 0.0
09:11 16.9 13.4 80 1017.7 3.8 SW 9.2 0.0 0.0
09:12 17.0 13.5 80 1017.7 4.5 SW 9.2 0.0 0.0
09:13 17.0 13.5 80 1017.8 6.0 W 8.3 0.0 0.0
09:14 17.1 13.6 80 1017.8 8.3 SW 8.3 0.0 0.0
09:15 17.1 13.6 80 1017.7 9.2 SSW 9.2 0.0 0.0
09:16 17.3 13.8 80 1017.7 8.3 SW 9.2 0.0 0.0
09:17 17.3 13.8 80 1017.6 7.6 W 9.2 0.0 0.0
09:18 17.4 13.7 79 1017.7 8.3 W 9.2 0.0 0.0
09:19 17.5 13.8 79 1017.5 8.3 NW 9.2 0.0 0.0
09:20 17.5 13.8 79 1017.7 6.9 NW 9.2 0.0 0.0
09:22 17.6 13.7 78 1017.7 6.9 W 9.2 0.0 0.0
09:23 17.6 13.5 77 1017.8 5.4 N 9.2 0.0 0.0
09:24 17.6 13.5 77 1017.7 7.6 SW 9.2 0.0 0.0
09:25 17.6 13.5 77 1017.6 7.6 SW 9.2 0.0 0.0
09:26 17.6 13.5 77 1017.6 7.6 SW 9.2 0.0 0.0
09:27 17.6 13.5 77 1017.6 6.0 SW 9.2 0.0 0.0
09:28 17.6 13.5 77 1017.7 6.0 SE 9.2 0.0 0.0
09:29 17.7 13.6 77 1017.5 8.3 SW 9.2 0.0 0.0
09:30 17.7 13.4 76 1017.5 6.9 SW 9.2 0.0 0.0
09:31 17.7 13.4 76 1017.5 6.0 W 9.2 0.0 0.0
09:32 17.7 13.4 76 1017.5 6.9 W 8.3 0.0 0.0
09:33 17.7 13.4 76 1017.6 7.6 SW 8.3 0.0 0.0
09:34 17.7 13.4 76 1017.7 7.6 SW 8.3 0.0 0.0
09:36 17.9 13.6 76 1017.7 9.2 SW 10.7 0.0 0.0
09:37 17.9 13.4 75 1017.6 7.6 SW 10.7 0.0 0.0
09:38 17.9 13.4 75 1017.7 6.0 W 10.7 0.0 0.0
09:39 17.9 13.4 75 1017.7 9.8 WSW 10.7 0.0 0.0
09:40 17.9 13.4 75 1017.7 9.8 WSW 10.7 0.0 0.0
09:41 17.9 13.4 75 1017.7 6.0 SW 10.7 0.0 0.0
09:42 17.8 13.3 75 1017.8 6.9 SW 10.7 0.0 0.0
09:43 17.8 13.1 74 1017.7 6.0 SSW 10.7 0.0 0.0
09:44 17.8 13.1 74 1017.8 7.6 W 10.7 0.0 0.0
09:45 17.8 13.1 74 1017.6 5.4 W 10.7 0.0 0.0
09:46 17.8 13.1 74 1017.7 7.6 WNW 9.8 0.0 0.0
09:47 17.8 13.1 74 1017.6 6.0 W 9.8 0.0 0.0
09:48 17.9 13.0 73 1017.6 3.8 NW 9.8 0.0 0.0
09:50 18.1 13.2 73 1017.7 6.9 NW 7.6 0.0 0.0
09:51 18.1 13.2 73 1017.6 6.0 S 7.6 0.0 0.0
09:52 18.1 13.2 73 1017.7 3.8 NE 7.6 0.0 0.0
09:53 18.2 13.3 73 1017.7 3.8 W 7.6 0.0 0.0
09:54 18.2 13.3 73 1017.7 3.8 W 7.6 0.0 0.0
09:55 18.1 13.2 73 1017.6 6.9 NW 7.6 0.0 0.0
09:56 18.2 13.1 72 1017.6 6.9 W 7.6 0.0 0.0
09:57 18.2 12.9 71 1017.5 7.6 NW 7.6 0.0 0.0
09:58 18.2 12.9 71 1017.4 5.4 WSW 7.6 0.0 0.0
09:59 18.3 13.2 72 1017.6 6.0 SW 7.6 0.0 0.0
10:00 18.3 13.0 71 1017.5 6.9 W 7.6 0.0 0.0
10:01 18.4 13.1 71 1017.4 6.9 NW 7.6 0.0 0.0
10:02 18.6 13.2 71 1017.5 7.6 NW 8.3 0.0 0.0
10:04 18.6 13.2 71 1017.5 7.6 N 8.3 0.0 0.0
10:05 18.6 13.2 71 1017.5 5.4 W 8.3 0.0 0.0
10:06 18.6 13.2 71 1017.5 7.6 N 8.3 0.0 0.0
10:07 18.6 13.2 71 1017.4 6.9 NW 8.3 0.0 0.0
10:08 18.6 13.0 70 1017.6 4.5 W 8.3 0.0 0.0
10:09 18.7 13.3 71 1017.4 4.5 NW 8.3 0.0 0.0
10:10 18.7 13.3 71 1017.4 4.5 NW 8.3 0.0 0.0
10:11 18.8 13.2 70 1017.6 4.5 W 8.3 0.0 0.0
10:12 18.9 13.3 70 1017.5 4.5 NW 7.6 0.0 0.0
10:13 19.1 13.5 70 1017.5 5.4 SW 7.6 0.0 0.0
10:14 19.2 13.4 69 1017.5 6.0 NW 7.6 0.0 0.0
10:15 19.3 13.5 69 1017.4 6.0 SW 7.6 0.0 0.0
10:16 19.4 13.6 69 1017.4 6.9 N 7.6 0.0 0.0
10:17 19.5 13.7 69 1017.5 9.8 NE 9.8 0.0 0.0
10:19 19.5 13.7 69 1017.6 6.0 NW 9.8 0.0 0.0
10:20 19.6 13.5 68 1017.5 6.0 NW 9.8 0.0 0.0
10:21 19.5 13.4 68 1017.4 6.9 NW 9.8 0.0 0.0
10:22 19.4 13.4 68 1017.5 7.6 W 9.8 0.0 0.0
10:23 19.4 13.4 68 1017.5 7.6 W 9.8 0.0 0.0
10:24 19.3 13.0 67 1017.5 6.0 W 9.8 0.0 0.0
10:25 19.3 12.8 66 1017.4 6.9 SW 9.8 0.0 0.0
10:26 19.3 13.0 67 1017.5 7.6 SSW 9.8 0.0 0.0
10:27 19.3 13.0 67 1017.5 4.5 NE 9.8 0.0 0.0
10:28 19.4 13.1 67 1017.4 4.5 SW 7.6 0.0 0.0
10:29 19.4 13.1 67 1017.5 3.8 NW 7.6 0.0 0.0
10:30 19.4 13.4 68 1017.5 7.6 W 7.6 0.0 0.0
10:31 19.5 13.4 68 1017.5 8.3 SW 8.3 0.0 0.0
10:32 19.5 13.4 68 1017.5 5.4 SE 8.3 0.0 0.0
10:34 19.5 13.4 68 1017.7 9.2 W 9.2 0.0 0.0
10:35 19.5 13.4 68 1017.6 3.8 W 9.2 0.0 0.0
10:36 19.5 13.4 68 1017.6 6.0 W 9.2 0.0 0.0
10:37 19.4 13.1 67 1017.5 4.5 WNW 9.2 0.0 0.0
10:38 19.4 13.1 67 1017.5 4.5 WNW 9.2 0.0 0.0
10:39 19.4 13.1 67 1017.6 8.3 NW 9.2 0.0 0.0
10:40 19.4 13.4 68 1017.5 7.6 SSW 9.2 0.0 0.0
10:41 19.4 13.4 68 1017.5 6.9 SW 9.2 0.0 0.0
10:42 19.3 13.3 68 1017.5 7.6 NW 9.2 0.0 0.0
10:43 19.3 13.3 68 1017.5 4.5 NW 9.2 0.0 0.0
10:44 19.2 13.2 68 1017.6 5.4 W 9.2 0.0 0.0
10:45 19.2 13.2 68 1017.6 9.8 SW 9.8 0.0 0.0
10:46 19.1 12.8 67 1017.5 7.6 NNE 9.8 0.0 0.0
10:47 19.1 12.8 67 1017.5 7.6 W 9.8 0.0 0.0
10:49 19.1 13.1 68 1017.5 5.4 SW 9.8 0.0 0.0
10:50 19.2 13.2 68 1017.4 4.5 SW 9.8 0.0 0.0
10:51 19.2 13.4 69 1017.5 6.9 NW 9.8 0.0 0.0
10:52 19.3 13.3 68 1017.4 9.2 NW 9.8 0.0 0.0
10:53 19.3 13.3 68 1017.5 9.8 W 9.8 0.0 0.0
10:54 19.3 13.3 68 1017.6 6.9 W 9.8 0.0 0.0
10:55 19.3 13.3 68 1017.5 8.3 W 9.8 0.0 0.0
10:56 19.3 13.3 68 1017.4 7.6 NW 9.8 0.0 0.0
10:57 19.3 13.3 68 1017.4 7.6 W 9.8 0.0 0.0
10:58 19.3 13.3 68 1017.5 11.4 NW 11.4 0.0 0.0
10:59 19.2 13.2 68 1017.6 7.6 WSW 11.4 0.0 0.0
11:00 19.2 13.2 68 1017.5 6.9 SW 11.4 0.0 0.0
11:01 19.2 13.2 68 1017.5 9.8 NW 11.4 0.0 0.0
11:03 19.1 13.1 68 1017.5 4.5 SW 11.4 0.0 0.0
11:04 19.2 13.4 69 1017.3 9.8 W 11.4 0.0 0.0
11:06 19.4 13.6 69 1017.4 6.0 N 11.4 0.0 0.0
11:07 19.5 13.7 69 1017.3 9.2 N 11.4 0.0 0.0
11:08 19.6 13.5 68 1017.4 6.0 NW 9.8 0.0 0.0
11:09 19.6 13.5 68 1017.4 9.2 SW 9.8 0.0 0.0
11:10 19.6 13.5 68 1017.4 9.2 SW 9.8 0.0 0.0
11:11 19.6 13.5 68 1017.4 7.6 SE 9.8 0.0 0.0
11:12 19.6 13.5 68 1017.4 6.9 W 9.8 0.0 0.0
11:13 19.6 13.5 68 1017.4 5.4 W 9.8 0.0 0.0
11:14 19.6 13.5 68 1017.4 9.2 NW 9.8 0.0 0.0
11:15 19.5 13.2 67 1017.4 7.6 N 9.2 0.0 0.0
11:16 19.5 13.2 67 1017.4 6.9 NW 9.2 0.0 0.0
11:17 19.5 13.2 67 1017.5 5.4 W 9.2 0.0 0.0
11:18 19.5 13.2 67 1017.4 4.5 W 9.2 0.0 0.0
11:20 19.6 13.5 68 1017.3 4.5 N 9.2 0.0 0.0
11:21 19.8 13.5 67 1017.3 6.9 S 9.2 0.0 0.0
11:22 19.9 13.6 67 1017.3 3.8 NW 9.2 0.0 0.0
11:23 19.9 13.6 67 1017.3 6.0 NW 9.2 0.0 0.0
11:24 20.0 13.7 67 1017.5 3.8 NW 8.3 0.0 0.0
11:25 20.0 13.7 67 1017.6 6.0 SW 8.3 0.0 0.0
11:26 20.0 13.7 67 1017.4 5.4 W 8.3 0.0 0.0
11:27 20.0 13.7 67 1017.4 8.3 N 9.2 0.0 0.0
11:28 20.0 13.7 67 1017.4 5.4 NW 9.2 0.0 0.0
11:29 19.9 13.6 67 1017.3 9.8 NW 9.8 0.0 0.0
11:30 19.9 13.4 66 1017.4 7.6 NW 9.8 0.0 0.0
11:31 19.8 13.3 66 1017.4 3.1 S 9.8 0.0 0.0
11:32 19.8 13.3 66 1017.4 6.9 NW 9.8 0.0 0.0
11:34 19.8 13.7 68 1017.4 3.1 W 9.8 0.0 0.0
11:35 19.9 13.6 67 1017.2 5.4 W 9.8 0.0 0.0
11:36 20.0 13.5 66 1017.2 6.0 W 9.8 0.0 0.0
11:37 20.1 13.6 66 1017.1 3.8 E 9.8 0.0 0.0
11:38 20.1 13.6 66 1017.1 3.8 E 9.8 0.0 0.0
11:39 20.2 13.9 67 1017.1 3.8 W 9.8 0.0 0.0
11:40 20.3 13.8 66 1017.2 4.5 W 6.9 0.0 0.0
11:41 20.3 13.8 66 1017.1 7.6 NW 7.6 0.0 0.0
11:42 20.4 13.8 66 1017.2 8.3 NE 8.3 0.0 0.0
11:43 20.4 13.6 65 1017.2 8.3 NW 8.3 0.0 0.0
11:44 20.3 13.3 64 1017.2 9.2 NW 9.2 0.0 0.0
11:45 20.3 13.3 64 1017.2 5.4 WNW 9.2 0.0 0.0
11:46 20.3 13.5 65 1017.3 6.9 NW 9.2 0.0 0.0
11:47 20.3 13.5 65 1017.1 3.8 NW 9.2 0.0 0.0
11:49 20.4 13.6 65 1017.2 8.3 NW 9.2 0.0 0.0
11:50 20.5 13.5 64 1017.2 5.4 NW 9.2 0.0 0.0
11:51 20.5 13.5 64 1017.1 3.8 NE 9.2 0.0 0.0
11:52 20.5 13.5 64 1017.2 6.0 NW 9.2 0.0 0.0
11:53 20.5 13.5 64 1017.1 4.5 NW 9.2 0.0 0.0
11:54 20.5 13.5 64 1017.2 4.5 NW 9.2 0.0 0.0
11:55 20.4 13.4 64 1017.2 7.6 NW 9.8 0.0 0.0
11:56 20.4 13.4 64 1017.2 5.4 W 9.8 0.0 0.0
11:57 20.4 13.4 64 1017.1 6.9 N 9.8 0.0 0.0
11:58 20.4 13.4 64 1017.0 10.7 W 10.7 0.0 0.0
11:59 20.3 13.0 63 1017.1 6.0 SW 10.7 0.0 0.0
12:00 20.3 12.8 62 1017.2 7.6 SW 10.7 0.0 0.0
12:01 20.3 13.3 64 1017.1 6.0 N 10.7 0.0 0.0
12:03 20.5 13.0 62 1017.1 6.9 W 10.7 0.0 0.0
12:04 20.6 13.1 62 1017.1 6.0 WSW 10.7 0.0 0.0
12:05 20.6 12.3 59 1017.1 8.3 W 10.7 0.0 0.0
12:06 20.6 12.3 59 1017.1 8.3 W 10.7 0.0 0.0
12:07 20.7 13.2 62 1017.0 6.9 SSW 10.7 0.0 0.0
12:08 20.7 12.9 61 1017.1 11.4 NW 11.4 0.0 0.0
12:09 20.7 12.7 60 1017.2 12.1 SW 12.1 0.0 0.0
12:10 20.7 12.9 61 1017.1 13.6 WNW 13.6 0.0 0.0
12:11 20.6 12.8 61 1017.0 8.3 SW 13.6 0.0 0.0
12:12 20.6 12.8 61 1017.0 6.0 SW 13.6 0.0 0.0
12:13 20.6 12.8 61 1017.1 9.2 W 13.6 0.0 0.0
12:14 20.5 12.7 61 1017.0 6.0 NW 13.6 0.0 0.0
12:15 20.6 13.1 62 1017.0 7.6 S 13.6 0.0 0.0
12:16 20.6 13.3 63 1017.1 11.4 SW 13.6 0.0 0.0
12:18 20.8 13.0 61 1017.2 9.8 NW 13.6 0.0 0.0
12:19 20.8 13.0 61 1016.9 6.0 SW 13.6 0.0 0.0
12:20 20.9 13.1 61 1017.0 10.7 SW 11.4 0.0 0.0
12:21 20.9 12.9 60 1016.9 12.1 SW 12.1 0.0 0.0
12:22 20.9 12.6 59 1017.0 9.8 W 12.1 0.0 0.0
12:23 20.9 12.9 60 1016.9 4.5 NW 12.1 0.0 0.0
12:24 20.9 12.9 60 1017.0 9.2 W 12.1 0.0 0.0
12:25 20.9 12.6 59 1016.9 11.4 NW 12.1 0.0 0.0
12:26 20.9 12.6 59 1016.9 10.7 SW 12.1 0.0 0.0
12:27 20.9 12.9 60 1017.0 9.8 SW 13.0 0.0 0.0
12:28 20.9 13.1 61 1016.9 6.9 WSW 13.0 0.0 0.0
12:29 21.0 13.2 61 1016.8 9.2 NW 13.0 0.0 0.0
12:30 21.2 13.1 60 1016.8 6.9 NW 13.0 0.0 0.0
12:32 21.4 13.6 61 1016.9 8.3 SE 13.0 0.0 0.0
12:33 21.6 13.8 61 1016.9 7.6 SW 13.0 0.0 0.0
12:34 21.7 13.4 59 1017.0 9.8 E 13.0 0.0 0.0
12:35 21.7 13.4 59 1017.0 9.8 E 13.0 0.0 0.0
12:36 21.8 12.6 56 1016.9 9.2 W 13.0 0.0 0.0
12:37 21.8 12.6 56 1016.8 9.8 S 10.7 0.0 0.0
12:38 21.8 12.9 57 1016.8 9.2 SW 10.7 0.0 0.0
12:39 21.8 12.9 57 1017.0 9.8 SW 10.7 0.0 0.0
12:40 21.9 13.0 57 1016.8 13.0 W 13.0 0.0 0.0
12:41 21.8 12.6 56 1016.9 7.6 SW 13.0 0.0 0.0
12:42 21.8 12.9 57 1016.9 9.2 WNW 13.0 0.0 0.0
12:43 21.7 12.8 57 1016.9 6.9 NW 13.0 0.0 0.0
12:44 21.6 12.5 56 1016.9 8.3 W 13.0 0.0 0.0
12:46 21.5 12.6 57 1016.8 8.3 W 13.0 0.0 0.0
12:47 21.4 12.3 56 1016.9 7.6 W 13.0 0.0 0.0
12:48 21.3 12.5 57 1016.8 5.4 SW 13.0 0.0 0.0
12:49 21.3 12.5 57 1016.9 6.9 NW 13.0 0.0 0.0
12:50 21.3 12.5 57 1016.9 6.9 NW 13.0 0.0 0.0
12:51 21.2 12.4 57 1016.9 6.0 NW 9.8 0.0 0.0
12:52 21.2 12.4 57 1016.9 7.6 SE 9.8 0.0 0.0
12:53 21.1 12.3 57 1017.0 8.3 S 9.8 0.0 0.0
12:54 21.0 12.2 57 1016.8 7.6 S 9.8 0.0 0.0
12:55 21.0 12.4 58 1016.8 5.4 W 9.8 0.0 0.0
12:56 21.1 12.5 58 1016.9 3.8 NW 9.8 0.0 0.0
12:57 21.1 12.5 58 1016.8 8.3 SW 9.8 0.0 0.0
12:58 21.2 12.9 59 1016.8 6.0 SW 9.8 0.0 0.0
12:59 21.1 12.5 58 1017.0 5.4 SW 9.8 0.0 0.0
13:01 21.1 12.5 58 1016.9 8.3 S 8.3 0.0 0.0
13:02 21.1 12.3 57 1016.9 6.0 NW 8.3 0.0 0.0
13:03 21.1 12.3 57 1016.7 6.0 NW 8.3 0.0 0.0
13:04 21.0 12.4 58 1016.9 9.8 WSW 9.8 0.0 0.0
13:05 21.0 12.4 58 1016.9 9.2 WNW 9.8 0.0 0.0
13:06 21.0 12.7 59 1016.9 9.2 NW 9.8 0.0 0.0
13:07 21.0 12.7 59 1016.8 9.2 SW 9.8 0.0 0.0
13:08 21.0 12.7 59 1016.8 11.4 N 11.4 0.0 0.0
13:09 21.1 13.0 60 1016.8 5.4 W 11.4 0.0 0.0
13:10 21.1 13.0 60 1016.9 4.5 NE 11.4 0.0 0.0
13:11 21.2 12.9 59 1016.8 6.9 W 11.4 0.0 0.0
13:12 21.3 13.2 60 1016.9 6.0 W 11.4 0.0 0.0
13:13 21.3 13.2 60 1016.9 8.3 SW 11.4 0.0 0.0
13:14 21.3 13.0 59 1016.9 7.6 SW 11.4 0.0 0.0
13:15 21.2 12.9 59 1016.8 6.9 SW 11.4 0.0 0.0
13:16 21.1 13.0 60 1016.7 9.2 W 11.4 0.0 0.0
13:17 21.1 13.0 60 1016.8 11.4 SW 11.4 0.0 0.0
13:19 21.1 13.0 60 1016.7 6.9 SW 11.4 0.0 0.0
13:20 21.1 13.0 60 1016.7 8.3 S 11.4 0.0 0.0
13:21 21.1 13.0 60 1016.8 7.6 SW 11.4 0.0 0.0
13:22 21.1 13.0 60 1016.8 7.6 SW 11.4 0.0 0.0
13:23 21.1 13.3 61 1016.8 11.4 NW 11.4 0.0 0.0
13:24 21.1 13.3 61 1016.8 9.2 NW 11.4 0.0 0.0
13:25 21.1 13.0 60 1016.7 10.7 SW 11.4 0.0 0.0
13:26 21.1 13.0 60 1016.8 6.9 SW 11.4 0.0 0.0
13:27 21.1 13.0 60 1016.8 8.3 W 11.4 0.0 0.0
13:28 21.2 13.4 61 1016.9 6.9 SW 11.4 0.0 0.0
13:29 21.3 13.5 61 1016.7 9.2 W 11.4 0.0 0.0
13:30 21.3 13.2 60 1016.8 9.8 SW 11.4 0.0 0.0
13:31 21.3 13.0 59 1016.8 11.4 WSW 11.4 0.0 0.0
13:32 21.2 13.4 61 1016.8 7.6 WSW 11.4 0.0 0.0
13:34 21.2 13.4 61 1016.7 7.6 W 11.4 0.0 0.0
13:35 21.3 13.7 62 1016.8 5.4 W 11.4 0.0 0.0
13:36 21.4 13.3 60 1016.8 10.7 SW 12.1 0.0 0.0
13:37 21.4 13.6 61 1016.6 9.8 W 12.1 0.0 0.0
13:38 21.4 13.6 61 1016.6 9.8 W 12.1 0.0 0.0
13:39 21.4 13.6 61 1016.7 9.8 E 12.1 0.0 0.0
13:40 21.5 13.7 61 1016.8 9.8 W 12.1 0.0 0.0
13:41 21.5 13.4 60 1016.7 7.6 W 12.1 0.0 0.0
13:42 21.4 13.3 60 1016.6 8.3 NW 12.1 0.0 0.0
13:43 21.5 13.9 62 1016.7 8.3 SW 12.1 0.0 0.0
13:44 21.6 14.0 62 1016.6 6.9 SW 12.1 0.0 0.0
13:45 21.7 14.1 62 1016.7 8.3 SW 12.1 0.0 0.0
13:46 21.7 13.9 61 1016.7 9.2 SW 12.1 0.0 0.0
13:47 21.7 13.6 60 1016.6 14.5 SW 14.5 0.0 0.0
13:48 21.6 13.5 60 1016.7 9.8 SW 14.5 0.0 0.0
13:49 21.5 13.7 61 1016.6 12.1 W 14.5 0.0 0.0
13:51 21.5 13.7 61 1016.6 12.1 WSW 14.5 0.0 0.0
13:52 21.6 13.8 61 1016.8 13.0 NW 14.5 0.0 0.0
13:53 21.5 13.7 61 1016.6 9.2 SW 14.5 0.0 0.0
13:54 21.5 13.9 62 1016.6 9.2 SW 14.5 0.0 0.0
13:55 21.5 13.7 61 1016.6 8.3 NW 14.5 0.0 0.0
13:56 21.5 13.9 62 1016.7 7.6 W 14.5 0.0 0.0
13:57 21.5 13.9 62 1016.6 10.7 SW 14.5 0.0 0.0
13:58 21.5 13.9 62 1016.5 10.7 SW 13.6 0.0 0.0
13:59 21.6 14.0 62 1016.7 5.4 W 13.6 0.0 0.0
14:00 21.6 13.8 61 1016.6 11.4 NW 13.6 0.0 0.0
14:01 21.6 13.8 61 1016.7 11.4 NW 13.6 0.0 0.0
14:02 21.6 13.5 60 1016.6 6.9 SW 13.6 0.0 0.0
14:03 21.5 13.4 60 1016.6 11.4 S 11.4 0.0 0.0
14:04 21.5 13.4 60 1016.6 11.4 SW 11.4 0.0 0.0
14:05 21.4 13.3 60 1016.7 9.2 W 11.4 0.0 0.0
14:06 21.3 13.2 60 1016.5 9.8 NW 11.4 0.0 0.0
14:07 21.3 13.2 60 1016.5 7.6 W 11.4 0.0 0.0
14:09 21.1 13.3 61 1016.3 9.8 W 11.4 0.0 0.0
14:10 21.1 13.3 61 1016.5 13.0 NW 13.0 0.0 0.0
14:11 21.0 13.2 61 1016.3 6.9 W 13.0 0.0 0.0
14:12 21.0 13.2 61 1016.4 8.3 W 13.0 0.0 0.0
14:13 21.0 13.2 61 1016.4 8.3 W 13.0 0.0 0.0
14:14 21.0 13.2 61 1016.5 9.2 SW 13.0 0.0 0.0
14:15 20.9 13.4 62 1016.5 6.0 NW 13.0 0.0 0.0
14:16 20.9 13.4 62 1016.5 6.0 SE 13.0 0.0 0.0
14:17 20.9 13.6 63 1016.4 7.6 SW 13.0 0.0 0.0
14:18 20.9 13.6 63 1016.6 8.3 WSW 13.0 0.0 0.0
14:19 20.8 13.3 62 1016.5 6.0 W 13.0 0.0 0.0
14:20 20.8 13.3 62 1016.5 8.3 SW 13.0 0.0 0.0
14:21 20.8 13.3 62 1016.4 6.9 SW 9.2 0.0 0.0
14:22 20.7 13.4 63 1016.4 6.0 NNW 9.2 0.0 0.0
14:23 20.8 13.5 63 1016.5 6.0 N 9.2 0.0 0.0
14:24 20.8 13.5 63 1016.3 4.5 E 8.3 0.0 0.0
14:25 20.9 13.4 62 1016.3 6.0 SW 8.3 0.0 0.0
14:26 21.0 13.7 63 1016.6 6.9 WNW 8.3 0.0 0.0
14:27 21.1 13.8 63 1016.5 9.2 SW 9.2 0.0 0.0
14:29 21.2 13.4 61 1016.3 13.6 SW 13.6 0.0 0.0
14:30 21.3 13.2 60 1016.3 8.3 NW 13.6 0.0 0.0
14:31 21.3 13.2 60 1016.3 8.3 S 13.6 0.0 0.0
14:32 21.3 13.0 59 1016.5 11.4 SW 13.6 0.0 0.0
14:33 21.3 13.0 59 1016.3 9.2 SW 13.6 0.0 0.0
14:34 21.3 13.0 59 1016.3 6.9 SW 13.6 0.0 0.0
14:35 21.3 13.2 60 1016.4 8.3 W 13.6 0.0 0.0
14:36 21.4 13.3 60 1016.3 6.9 SW 13.6 0.0 0.0
14:37 21.4 13.3 60 1016.5 6.0 W 13.6 0.0 0.0
14:38 21.3 13.2 60 1016.3 8.3 SW 13.6 0.0 0.0
14:39 21.4 13.1 59 1016.5 8.3 W 13.6 0.0 0.0
14:40 21.4 12.8 58 1016.3 9.8 SW 12.1 0.0 0.0
14:41 21.4 13.1 59 1016.4 10.7 SW 12.1 0.0 0.0
14:42 21.4 13.1 59 1016.5 11.4 SW 12.1 0.0 0.0
14:43 21.3 13.2 60 1016.2 7.6 SSW 12.1 0.0 0.0
14:44 21.4 13.6 61 1016.1 10.7 SW 12.1 0.0 0.0
14:45 21.6 13.8 61 1016.3 9.2 SW 12.1 0.0 0.0
14:47 21.8 13.7 60 1016.3 10.7 SW 12.1 0.0 0.0
14:48 21.8 13.4 59 1016.3 8.3 SW 12.1 0.0 0.0
14:49 21.7 13.4 59 1016.2 8.3 SW 11.4 0.0 0.0
14:50 21.7 13.6 60 1016.4 6.9 W 11.4 0.0 0.0
14:51 21.6 13.3 59 1016.4 9.8 SW 11.4 0.0 0.0
14:52 21.6 13.5 60 1016.3 6.0 SE 10.7 0.0 0.0
14:53 21.6 13.3 59 1016.5 11.4 WSW 11.4 0.0 0.0
14:54 21.5 13.2 59 1016.4 10.7 N 11.4 0.0 0.0
14:55 21.5 13.2 59 1016.4 8.3 W 11.4 0.0 0.0
14:56 21.5 13.4 60 1016.4 11.4 SW 11.4 0.0 0.0
14:57 21.5 13.4 60 1016.3 8.3 SW 11.4 0.0 0.0
14:58 21.5 13.4 60 1016.3 6.0 NW 11.4 0.0 0.0
14:59 21.7 13.6 60 1016.4 9.2 NW 11.4 0.0 0.0
15:00 21.8 13.7 60 1016.3 5.4 S 11.4 0.0 0.0
15:01 22.0 13.9 60 1016.3 6.0 SW 11.4 0.0 0.0
15:02 22.2 13.8 59 1016.1 11.4 SW 11.4 0.0 0.0
15:03 22.3 13.9 59 1016.3 9.2 SW 11.4 0.0 0.0
15:04 22.5 14.4 60 1016.3 9.8 W 11.4 0.0 0.0
15:05 22.7 13.8 57 1016.3 6.9 S 11.4 0.0 0.0
15:07 22.8 13.9 57 1016.3 9.2 SW 11.4 0.0 0.0
15:08 22.9 13.9 57 1016.3 10.7 SW 11.4 0.0 0.0
15:09 22.8 13.6 56 1016.2 7.6 W 11.4 0.0 0.0
15:10 22.8 13.6 56 1016.1 9.2 W 11.4 0.0 0.0
15:11 22.7 13.5 56 1016.2 10.7 WNW 11.4 0.0 0.0
15:12 22.6 13.1 55 1016.2 8.3 W 11.4 0.0 0.0
15:13 22.5 13.3 56 1016.1 6.0 SW 10.7 0.0 0.0
15:14 22.4 13.2 56 1016.2 8.3 SW 10.7 0.0 0.0
15:15 22.2 13.3 57 1016.2 9.2 SW 10.7 0.0 0.0
15:16 22.2 13.3 57 1016.3 9.2 SW 10.7 0.0 0.0
15:17 22.2 13.3 57 1016.2 9.8 SW 10.7 0.0 0.0
15:18 22.2 13.3 57 1016.3 8.3 SW 10.7 0.0 0.0
15:19 22.1 13.2 57 1016.2 9.2 SW 10.7 0.0 0.0
15:20 22.0 13.1 57 1016.3 8.3 SW 10.7 0.0 0.0
15:21 22.0 13.4 58 1016.2 7.6 WSW 10.7 0.0 0.0
15:22 21.9 13.0 57 1016.3 8.3 SW 9.8 0.0 0.0
15:23 21.9 12.7 56 1016.2 6.9 NW 11.4 0.0 0.0
15:24 21.8 12.6 56 1016.1 7.6 NW 11.4 0.0 0.0
15:25 21.8 12.6 56 1016.2 7.6 W 11.4 0.0 0.0
15:26 21.7 12.6 56 1016.3 7.6 SW 11.4 0.0 0.0
15:27 21.6 12.7 57 1016.1 6.0 W 11.4 0.0 0.0
15:28 21.6 12.7 57 1016.2 12.1 SW 12.1 0.0 0.0
15:29 21.4 12.8 58 1016.1 7.6 W 12.1 0.0 0.0
15:30 21.4 12.8 58 1016.2 6.9 W 12.1 0.0 0.0
15:31 21.4 12.8 58 1016.2 6.9 SW 12.1 0.0 0.0
15:33 21.3 12.7 58 1016.2 7.6 S 12.1 0.0 0.0
15:34 21.2 12.6 58 1016.1 7.6 W 12.1 0.0 0.0
15:35 21.3 12.7 58 1016.2 5.4 SW 12.1 0.0 0.0
15:36 21.2 12.6 58 1016.0 9.2 NW 12.1 0.0 0.0
15:37 21.2 12.9 59 1016.2 8.3 NW 12.1 0.0 0.0
15:38 21.2 12.9 59 1016.0 9.2 SW 12.1 0.0 0.0
15:39 21.2 12.9 59 1016.1 9.2 NW 11.4 0.0 0.0
15:40 21.2 12.9 59 1016.0 6.0 E 11.4 0.0 0.0
15:41 21.2 12.9 59 1016.1 9.2 SW 11.4 0.0 0.0
15:42 21.2 12.9 59 1016.0 8.3 SW 11.4 0.0 0.0
15:43 21.2 12.9 59 1016.2 6.9 NW 11.4 0.0 0.0
15:44 21.2 12.6 58 1016.1 9.2 SW 9.2 0.0 0.0
15:45 21.2 12.6 58 1016.1 9.2 SW 9.2 0.0 0.0
15:46 21.1 12.5 58 1015.9 6.9 SE 9.8 0.0 0.0
15:48 21.2 12.9 59 1015.9 6.9 W 11.4 0.0 0.0
15:49 21.2 12.9 59 1015.8 6.9 W 11.4 0.0 0.0
15:50 21.3 13.0 59 1015.9 10.7 SW 11.4 0.0 0.0
15:51 21.3 13.0 59 1015.9 6.0 NW 11.4 0.0 0.0
15:52 21.4 12.8 58 1015.9 8.3 NW 11.4 0.0 0.0
15:53 21.5 13.2 59 1016.0 5.4 W 11.4 0.0 0.0
15:54 21.6 13.3 59 1015.8 9.2 NW 11.4 0.0 0.0
15:55 21.8 13.4 59 1016.0 9.2 WNW 11.4 0.0 0.0
15:56 21.9 13.0 57 1015.9 11.4 SW 11.4 0.0 0.0
15:57 22.0 13.4 58 1015.7 13.0 SW 13.0 0.0 0.0
15:58 22.1 13.5 58 1015.8 9.8 W 13.0 0.0 0.0
15:59 22.2 13.6 58 1015.8 8.3 SW 13.0 0.0 0.0
16:00 22.2 13.6 58 1015.7 8.3 ENE 13.0 0.0 0.0
16:01 22.3 13.7 58 1015.7 12.1 W 13.0 0.0 0.0
16:02 22.5 13.6 57 1015.6 9.8 SW 13.0 0.0 0.0
16:04 22.7 13.8 57 1015.7 13.0 WNW 13.6 0.0 0.0
16:05 22.8 14.4 59 1015.8 7.6 W 13.6 0.0 0.0
16:06 22.9 14.2 58 1015.8 11.4 SW 13.6 0.0 0.0
16:07 22.9 13.7 56 1015.8 10.7 W 13.6 0.0 0.0
16:08 22.8 13.6 56 1015.9 11.4 SW 13.6 0.0 0.0
16:09 22.7 13.5 56 1015.7 9.2 W 13.6 0.0 0.0
16:10 22.6 13.7 57 1015.7 8.3 W 13.6 0.0 0.0
16:11 22.4 13.5 57 1015.7 12.1 SW 13.6 0.0 0.0
16:12 22.3 13.4 57 1015.7 9.8 WSW 13.6 0.0 0.0
16:13 22.2 13.3 57 1015.8 8.3 WSW 13.0 0.0 0.0
16:14 22.1 13.2 57 1015.6 8.3 SW 12.1 0.0 0.0
16:15 22.0 13.1 57 1015.5 9.2 NW 12.1 0.0 0.0
16:16 21.9 13.3 58 1015.7 6.0 NW 12.1 0.0 0.0
16:17 21.8 13.2 58 1015.6 9.2 W 12.1 0.0 0.0
16:19 21.8 13.4 59 1015.7 6.9 NW 12.1 0.0 0.0
16:20 21.8 13.4 59 1015.5 6.9 NW 12.1 0.0 0.0
16:21 21.8 13.4 59 1015.7 6.9 NW 12.1 0.0 0.0
16:22 21.8 13.4 59 1015.5 6.9 NW 10.7 0.0 0.0
16:23 21.8 13.4 59 1015.6 6.9 NW 10.7 0.0 0.0
16:24 21.8 13.4 59 1015.6 6.9 NW 10.7 0.0 0.0
16:25 21.8 13.4 59 1015.6 6.9 NW 10.7 0.0 0.0
16:26 21.8 13.4 59 1015.6 6.9 NW 10.7 0.0 0.0
16:27 22.1 13.5 58 1015.4 8.3 SW 10.7 0.0 0.0
16:28 22.1 13.5 58 1015.4 8.3 SW 10.7 0.0 0.0
16:29 22.2 13.6 58 1015.6 9.2 SW 10.7 0.0 0.0
16:30 22.3 13.7 58 1015.6 7.6 SW 10.7 0.0 0.0
16:31 22.3 13.1 56 1015.5 13.6 SW 13.6 0.0 0.0
16:33 22.4 13.5 57 1015.8 6.0 W 13.6 0.0 0.0
16:34 22.4 13.5 57 1015.7 6.0 W 13.6 0.0 0.0
16:35 22.4 13.5 57 1015.7 11.4 W 13.6 0.0 0.0
16:36 22.4 13.2 56 1015.8 6.9 NW 13.6 0.0 0.0
16:37 22.3 13.1 56 1015.7 7.6 SW 13.6 0.0 0.0
16:38 22.3 13.1 56 1015.7 7.6 W 13.6 0.0 0.0
16:39 22.3 13.4 57 1015.7 12.1 NW 13.6 0.0 0.0
16:40 22.3 13.4 57 1015.8 8.3 NW 13.6 0.0 0.0
16:41 22.3 13.4 57 1015.7 6.9 W 12.1 0.0 0.0
16:42 22.2 13.0 56 1015.7 9.8 W 12.1 0.0 0.0
16:43 22.2 13.0 56 1015.9 12.1 SW 12.1 0.0 0.0
16:44 22.0 13.1 57 1015.6 8.3 SW 12.1 0.0 0.0
16:45 22.0 13.1 57 1015.7 9.8 W 12.1 0.0 0.0
16:47 22.0 13.1 57 1015.6 10.7 NW 12.1 0.0 0.0
16:48 22.0 13.1 57 1015.8 12.1 NW 12.1 0.0 0.0
16:49 21.9 13.0 57 1015.7 9.2 SW 14.5 0.0 0.0
16:50 21.9 13.0 57 1015.7 9.8 N 14.5 0.0 0.0
16:51 21.8 13.2 58 1015.6 7.6 SW 14.5 0.0 0.0
16:52 21.8 13.2 58 1015.6 9.8 W 14.5 0.0 0.0
16:53 21.8 13.2 58 1015.7 9.8 SW 14.5 0.0 0.0
16:54 21.8 13.2 58 1015.7 11.4 NW 14.5 0.0 0.0
16:55 21.7 13.4 59 1015.7 10.7 WNW 14.5 0.0 0.0
16:56 21.7 13.4 59 1015.7 9.8 SW 14.5 0.0 0.0
16:57 21.7 13.4 59 1015.6 10.7 WSW 14.5 0.0 0.0
16:58 21.7 13.4 59 1015.7 10.7 NW 14.5 0.0 0.0
16:59 21.6 13.3 59 1015.6 9.8 SW 13.0 0.0 0.0
17:00 21.6 13.3 59 1015.7 9.2 SW 13.0 0.0 0.0
17:02 21.5 13.4 60 1015.7 10.7 NW 13.0 0.0 0.0
17:03 21.4 13.3 60 1015.8 6.0 NW 13.0 0.0 0.0
17:04 21.4 13.3 60 1015.7 9.8 SW 13.0 0.0 0.0
17:05 21.4 13.6 61 1015.6 9.2 NW 13.0 0.0 0.0
17:06 21.3 13.2 60 1015.7 9.2 SW 13.0 0.0 0.0
17:07 21.3 13.5 61 1015.5 9.8 SW 10.7 0.0 0.0
17:08 21.3 13.5 61 1015.6 7.6 SW 10.7 0.0 0.0
17:09 21.2 13.4 61 1015.7 13.0 W 13.0 0.0 0.0
17:10 21.2 13.4 61 1015.7 9.2 SW 13.0 0.0 0.0
17:11 21.2 13.4 61 1015.7 8.3 SW 13.0 0.0 0.0
17:12 21.1 13.3 61 1015.7 8.3 N 13.0 0.0 0.0
17:13 21.1 13.3 61 1015.8 6.9 W 13.0 0.0 0.0
17:14 21.1 13.5 62 1015.7 7.6 WNW 13.0 0.0 0.0
17:15 21.2 13.6 62 1015.7 10.7 NW 13.0 0.0 0.0
17:16 21.2 13.6 62 1015.7 10.7 NW 13.0 0.0 0.0
17:17 21.2 13.9 63 1015.6 5.4 SW 13.0 0.0 0.0
17:18 21.3 14.2 64 1015.7 9.2 SW 13.0 0.0 0.0
17:19 21.4 14.1 63 1015.6 9.8 W 13.0 0.0 0.0
17:20 21.4 14.1 63 1015.8 10.7 N 10.7 0.0 0.0
17:22 21.6 14.0 62 1015.7 8.3 SW 10.7 0.0 0.0
17:23 21.7 13.9 61 1015.7 9.2 SW 10.7 0.0 0.0
17:24 21.7 13.9 61 1015.5 6.0 NW 10.7 0.0 0.0
17:25 21.6 13.8 61 1015.8 6.0 W 10.7 0.0 0.0
17:26 21.6 13.8 61 1015.7 6.9 W 10.7 0.0 0.0
17:27 21.6 13.8 61 1015.7 9.2 NW 10.7 0.0 0.0
17:28 21.6 13.8 61 1015.7 10.7 SW 10.7 0.0 0.0
17:29 21.5 13.4 60 1015.6 8.3 SW 10.7 0.0 0.0
17:30 21.5 13.4 60 1015.6 8.3 NW 10.7 0.0 0.0
17:31 21.5 13.7 61 1015.6 9.2 SW 10.7 0.0 0.0
17:32 21.4 13.6 61 1015.5 6.0 SW 10.7 0.0 0.0
17:33 21.4 13.6 61 1015.7 9.2 NW 10.7 0.0 0.0
17:34 21.4 13.6 61 1015.5 7.6 S 10.7 0.0 0.0
17:35 21.3 13.5 61 1015.6 9.8 W 10.7 0.0 0.0
17:37 21.3 13.5 61 1015.6 8.3 SW 10.7 0.0 0.0
17:38 21.3 13.5 61 1015.5 7.6 W 10.7 0.0 0.0
17:39 21.2 13.6 62 1015.6 8.3 NW 9.8 0.0 0.0
17:40 21.2 13.6 62 1015.5 9.2 W 9.8 0.0 0.0
17:41 21.2 13.4 61 1015.5 9.2 NW 9.8 0.0 0.0
17:42 21.1 13.3 61 1015.5 6.9 NW 9.8 0.0 0.0
17:43 21.1 13.5 62 1015.6 6.0 SW 9.8 0.0 0.0
17:44 21.1 13.5 62 1015.6 4.5 W 9.8 0.0 0.0
17:45 21.1 13.5 62 1015.4 6.0 NW 9.8 0.0 0.0
17:46 21.1 13.5 62 1015.4 6.0 SW 9.8 0.0 0.0
17:47 21.0 13.5 62 1015.3 6.9 W 9.2 0.0 0.0
17:48 21.0 13.5 62 1015.4 6.9 W 9.2 0.0 0.0
17:49 21.0 13.5 62 1015.5 9.8 SW 9.8 0.0 0.0
17:51 20.9 13.4 62 1015.5 6.9 SW 9.8 0.0 0.0
17:52 20.9 13.4 62 1015.4 5.4 W 9.8 0.0 0.0
17:53 20.8 13.5 63 1015.4 7.6 W 9.8 0.0 0.0
17:54 20.8 13.5 63 1015.4 6.9 SW 9.8 0.0 0.0
17:55 20.8 13.5 63 1015.3 8.3 W 9.8 0.0 0.0
17:56 20.8 13.5 63 1015.3 8.3 WSW 9.8 0.0 0.0
17:57 20.8 13.5 63 1015.4 9.8 W 9.8 0.0 0.0
17:58 20.7 13.4 63 1015.4 8.3 NW 9.8 0.0 0.0
17:59 20.7 13.4 63 1015.5 6.0 SE 9.8 0.0 0.0
18:00 20.7 13.7 64 1015.3 6.0 SW 9.8 0.0 0.0
18:01 20.7 13.7 64 1015.3 6.0 SW 9.8 0.0 0.0
18:02 20.7 13.7 64 1015.3 5.4 WSW 9.8 0.0 0.0
18:03 20.7 13.7 64 1015.3 10.7 S 10.7 0.0 0.0
18:04 20.7 13.7 64 1015.3 9.2 NW 10.7 0.0 0.0
18:06 20.8 13.8 64 1015.5 3.8 E 10.7 0.0 0.0
18:07 20.7 13.9 65 1015.4 6.0 SW 10.7 0.0 0.0
18:08 20.8 14.0 65 1015.4 6.9 SW 10.7 0.0 0.0
18:09 20.8 13.8 64 1015.3 6.0 NW 10.7 0.0 0.0
18:10 20.8 14.0 65 1015.3 7.6 SW 10.7 0.0 0.0
18:11 20.8 14.0 65 1015.5 8.3 N 10.7 0.0 0.0
18:12 20.8 13.8 64 1015.4 8.3 SW 10.7 0.0 0.0
18:13 20.7 13.9 65 1015.4 6.9 W 9.2 0.0 0.0
18:14 20.7 13.7 64 1015.4 7.6 NW 8.3 0.0 0.0
18:15 20.7 13.7 64 1015.3 6.9 NW 8.3 0.0 0.0
18:16 20.7 13.9 65 1015.3 6.9 NW 8.3 0.0 0.0
18:17 20.6 13.8 65 1015.5 4.5 W 8.3 0.0 0.0
18:18 20.6 13.8 65 1015.5 4.5 W 8.3 0.0 0.0
18:20 20.6 13.8 65 1015.6 6.9 SW 8.3 0.0 0.0
18:21 20.6 13.8 65 1015.6 5.4 SW 8.3 0.0 0.0
18:22 20.5 13.7 65 1015.4 6.0 NW 8.3 0.0 0.0
18:23 20.5 13.7 65 1015.5 7.6 W 8.3 0.0 0.0
18:24 20.5 13.7 65 1015.5 6.9 W 8.3 0.0 0.0
18:25 20.5 13.7 65 1015.3 8.3 WSW 8.3 0.0 0.0
18:26 20.5 13.7 65 1015.3 6.9 W 8.3 0.0 0.0
18:27 20.4 13.6 65 1015.3 6.9 SW 8.3 0.0 0.0
18:28 20.4 13.6 65 1015.3 6.9 SW 8.3 0.0 0.0
18:29 20.4 13.8 66 1015.4 6.9 SW 8.3 0.0 0.0
18:30 20.4 13.8 66 1015.3 9.2 W 9.2 0.0 0.0
18:31 20.3 13.8 66 1015.6 8.3 W 9.2 0.0 0.0
18:32 20.3 13.8 66 1015.4 7.6 N 9.2 0.0 0.0
18:33 20.2 13.7 66 1015.4 5.4 SW 9.2 0.0 0.0
18:35 20.2 13.7 66 1015.4 9.8 SW 9.8 0.0 0.0
18:36 20.1 13.6 66 1015.4 8.3 NW 9.8 0.0 0.0
18:37 20.1 13.6 66 1015.3 8.3 W 9.8 0.0 0.0
18:38 20.0 13.7 67 1015.4 7.6 SW 9.8 0.0 0.0
18:39 20.0 13.7 67 1015.3 6.9 SW 9.8 0.0 0.0
18:40 20.0 13.7 67 1015.2 7.6 SW 9.8 0.0 0.0
18:41 20.0 13.7 67 1015.2 6.9 W 9.8 0.0 0.0
18:42 19.9 13.6 67 1015.4 9.2 S 9.8 0.0 0.0
18:43 19.9 13.6 67 1015.4 9.2 S 9.8 0.0 0.0
18:44 19.9 13.6 67 1015.2 6.9 W 9.8 0.0 0.0
18:45 19.9 13.6 67 1015.1 7.6 SW 9.8 0.0 0.0
18:46 19.8 13.5 67 1015.3 9.8 SE 9.8 0.0 0.0
18:47 19.8 13.7 68 1015.3 7.6 W 9.8 0.0 0.0
18:49 19.8 13.7 68 1015.2 9.8 WNW 9.8 0.0 0.0
18:50 19.7 13.6 68 1015.1 7.6 NW 9.8 0.0 0.0
18:51 19.7 13.6 68 1015.2 7.6 WSW 9.8 0.0 0.0
18:52 19.6 13.5 68 1015.2 6.9 SW 9.8 0.0 0.0
18:53 19.6 13.5 68 1015.3 7.6 S 9.8 0.0 0.0
18:54 19.6 13.8 69 1015.2 7.6 SW 9.8 0.0 0.0
18:55 19.6 13.8 69 1015.2 7.6 W 9.8 0.0 0.0
18:56 19.6 13.8 69 1015.1 8.3 W 9.8 0.0 0.0
18:57 19.6 13.8 69 1015.1 8.3 W 9.8 0.0 0.0
18:58 19.6 13.8 69 1015.1 6.9 SW 9.8 0.0 0.0
18:59 19.6 13.8 69 1015.1 8.3 SW 8.3 0.0 0.0
19:00 19.6 13.8 69 1015.1 6.9 W 8.3 0.0 0.0
19:01 19.5 13.7 69 1015.2 8.3 W 8.3 0.0 0.0
19:03 19.5 13.9 70 1015.2 8.3 SW 8.3 0.0 0.0
19:04 19.5 13.9 70 1015.2 9.8 SSW 9.8 0.0 0.0
19:05 19.5 13.9 70 1015.1 10.7 SW 10.7 0.0 0.0
19:06 19.4 13.8 70 1015.2 7.6 W 10.7 0.0 0.0
19:07 19.4 13.8 70 1015.3 8.3 SW 10.7 0.0 0.0
19:08 19.4 13.8 70 1015.2 6.0 W 10.7 0.0 0.0
19:09 19.4 13.8 70 1015.1 6.0 SW 10.7 0.0 0.0
19:10 19.4 13.8 70 1015.3 7.6 S 10.7 0.0 0.0
19:11 19.4 13.8 70 1015.2 7.6 SW 10.7 0.0 0.0
19:12 19.4 13.8 70 1015.2 6.0 SW 10.7 0.0 0.0
19:13 19.4 14.0 71 1015.3 8.3 SW 10.7 0.0 0.0
19:14 19.3 13.9 71 1015.1 6.9 SW 10.7 0.0 0.0
19:15 19.3 13.9 71 1015.1 6.9 SW 10.7 0.0 0.0
19:16 19.3 13.9 71 1015.2 8.3 S 9.2 0.0 0.0
19:17 19.3 13.9 71 1015.2 7.6 W 9.8 0.0 0.0
19:18 19.2 13.8 71 1015.1 6.9 SW 9.8 0.0 0.0
19:19 19.2 13.8 71 1014.9 7.6 WSW 9.8 0.0 0.0
19:20 19.2 13.8 71 1015.1 6.9 WSW 9.8 0.0 0.0
19:22 19.2 13.8 71 1015.1 7.6 SW 9.8 0.0 0.0
19:23 19.1 13.9 72 1015.1 6.0 SW 9.8 0.0 0.0
19:24 19.1 13.9 72 1015.2 4.5 NW 9.8 0.0 0.0
19:25 19.1 13.9 72 1015.1 5.4 SW 9.8 0.0 0.0
19:26 19.0 13.8 72 1014.9 7.6 SW 9.8 0.0 0.0
19:27 19.1 13.9 72 1015.0 7.6 S 8.3 0.0 0.0
19:28 19.0 13.8 72 1015.1 6.9 SSW 8.3 0.0 0.0
19:29 19.0 13.8 72 1014.9 9.2 S 9.2 0.0 0.0
19:30 19.0 13.8 72 1015.1 8.3 S 9.2 0.0 0.0
19:31 18.9 13.8 72 1014.9 8.3 S 9.2 0.0 0.0
19:32 18.9 13.8 72 1015.0 9.2 SW 9.2 0.0 0.0
19:33 18.8 13.9 73 1015.0 6.9 SW 9.2 0.0 0.0
19:34 18.8 13.9 73 1015.0 9.2 WSW 9.2 0.0 0.0
19:36 18.8 13.9 73 1014.9 9.2 W 9.2 0.0 0.0
19:37 18.7 13.8 73 1015.0 6.0 SW 9.2 0.0 0.0
19:38 18.7 13.8 73 1014.8 5.4 SW 9.2 0.0 0.0
19:39 18.7 13.8 73 1015.0 10.7 SW 10.7 0.0 0.0
19:40 18.7 13.8 73 1014.9 9.2 SW 10.7 0.0 0.0
19:41 18.7 14.0 74 1014.9 8.3 S 10.7 0.0 0.0
19:42 18.6 13.9 74 1015.0 8.3 SW 10.7 0.0 0.0
19:43 18.6 13.9 74 1014.9 7.6 W 10.7 0.0 0.0
19:44 18.6 13.9 74 1014.9 7.6 W 10.7 0.0 0.0
19:45 18.6 13.9 74 1014.8 6.9 SW 10.7 0.0 0.0
19:46 18.6 13.9 74 1014.9 6.0 SW 10.7 0.0 0.0
19:47 18.6 13.9 74 1014.9 6.9 S 10.7 0.0 0.0
19:48 18.6 13.9 74 1014.8 5.4 S 10.7 0.0 0.0
19:50 18.6 13.9 74 1014.8 4.5 SW 9.2 0.0 0.0
19:51 18.6 14.1 75 1014.8 6.0 SW 9.2 0.0 0.0
19:52 18.5 14.0 75 1014.9 5.4 S 8.3 0.0 0.0
19:53 18.5 14.0 75 1014.8 6.9 SW 7.6 0.0 0.0
19:54 18.5 14.0 75 1014.9 5.4 SW 9.2 0.0 0.0
19:55 18.5 14.0 75 1014.8 6.0 SW 9.2 0.0 0.0
19:56 18.5 14.0 75 1014.8 4.5 W 9.2 0.0 0.0
19:57 18.5 14.0 75 1014.8 4.5 SW 9.2 0.0 0.0
19:58 18.5 14.0 75 1014.8 5.4 SW 9.2 0.0 0.0
19:59 18.5 14.0 75 1015.0 6.9 S 9.2 0.0 0.0
20:00 18.5 14.0 75 1014.8 5.4 WSW 9.2 0.0 0.0
20:01 18.5 14.0 75 1014.8 6.9 S 9.2 0.0 0.0
20:02 18.4 13.9 75 1014.8 5.4 W 9.2 0.0 0.0
20:03 18.5 14.0 75 1014.8 5.4 SW 9.2 0.0 0.0
20:05 18.4 14.1 76 1014.8 6.0 S 6.9 0.0 0.0
20:06 18.4 14.1 76 1014.9 3.8 SW 6.9 0.0 0.0
20:07 18.4 14.1 76 1014.9 3.8 WSW 6.9 0.0 0.0
20:08 18.4 14.1 76 1014.9 6.0 SW 6.9 0.0 0.0
20:09 18.4 14.1 76 1015.0 4.5 SW 6.9 0.0 0.0
20:10 18.4 14.1 76 1015.0 6.0 SW 6.9 0.0 0.0
20:11 18.4 14.1 76 1014.9 4.5 SW 6.0 0.0 0.0
20:12 18.4 14.1 76 1014.9 4.5 SW 6.0 0.0 0.0
20:13 18.3 14.0 76 1015.0 8.3 S 8.3 0.0 0.0
20:14 18.3 14.0 76 1014.9 6.9 SW 8.3 0.0 0.0
20:15 18.3 14.0 76 1015.0 5.4 SW 8.3 0.0 0.0
20:16 18.3 14.2 77 1014.9 6.9 SW 8.3 0.0 0.0
20:17 18.3 14.0 76 1015.0 4.5 S 8.3 0.0 0.0
20:19 18.3 14.2 77 1015.0 6.0 SW 8.3 0.0 0.0
20:20 18.2 14.1 77 1015.1 6.0 SW 8.3 0.0 0.0
20:21 18.2 14.1 77 1015.0 5.4 S 8.3 0.0 0.0
20:22 18.2 14.1 77 1015.1 7.6 S 8.3 0.0 0.0
20:23 18.2 14.1 77 1015.0 6.9 SW 7.6 0.0 0.0
20:24 18.1 14.0 77 1015.0 7.6 SW 7.6 0.0 0.0
20:25 18.1 14.2 78 1015.0 5.4 SW 7.6 0.0 0.0
20:26 18.1 14.2 78 1014.9 3.8 SW 7.6 0.0 0.0
20:27 18.1 14.2 78 1015.0 4.5 S 7.6 0.0 0.0
20:28 18.0 14.1 78 1015.1 7.6 SW 7.6 0.0 0.0
20:29 18.0 14.1 78 1014.9 5.4 SW 7.6 0.0 0.0
20:30 18.0 14.1 78 1015.0 6.0 W 7.6 0.0 0.0
20:31 18.0 14.3 79 1014.9 5.4 SW 7.6 0.0 0.0
20:33 17.9 14.2 79 1015.1 6.9 SW 7.6 0.0 0.0
20:34 17.9 14.2 79 1014.9 6.0 SW 7.6 0.0 0.0
20:35 17.8 14.1 79 1014.9 5.4 SW 7.6 0.0 0.0
20:36 17.8 14.1 79 1015.0 4.5 SSE 7.6 0.0 0.0
20:37 17.8 14.1 79 1015.0 5.4 S 7.6 0.0 0.0
20:38 17.8 14.3 80 1015.0 4.5 S 7.6 0.0 0.0
20:39 17.8 14.3 80 1014.9 3.8 S 7.6 0.0 0.0
20:40 17.8 14.3 80 1014.9 3.8 S 7.6 0.0 0.0
20:41 17.7 14.2 80 1015.0 3.8 S 7.6 0.0 0.0
20:42 17.7 14.2 80 1014.9 3.1 S 7.6 0.0 0.0
20:43 17.7 14.2 80 1014.9 3.8 SW 7.6 0.0 0.0
20:44 17.7 14.2 80 1015.1 3.1 SE 7.6 0.0 0.0
20:45 17.7 14.4 81 1014.9 3.1 SW 5.4 0.0 0.0
20:47 17.7 14.4 81 1014.9 3.8 S 5.4 0.0 0.0
20:48 17.6 14.3 81 1014.8 3.1 S 4.5 0.0 0.0
20:49 17.6 14.3 81 1014.7 3.8 SW 4.5 0.0 0.0
20:50 17.6 14.3 81 1014.9 3.8 SW 4.5 0.0 0.0
20:51 17.6 14.3 81 1014.9 3.8 SW 4.5 0.0 0.0
20:52 17.6 14.3 81 1014.9 3.8 S 4.5 0.0 0.0
20:53 17.6 14.3 81 1014.8 3.8 S 4.5 0.0 0.0
20:54 17.6 14.3 81 1014.8 3.1 S 4.5 0.0 0.0
20:55 17.6 14.3 81 1014.8 3.1 S 4.5 0.0 0.0
20:56 17.6 14.5 82 1014.8 2.2 S 4.5 0.0 0.0
20:57 17.6 14.5 82 1014.8 3.8 SSW 3.8 0.0 0.0
20:58 17.6 14.5 82 1014.9 3.1 NW 3.8 0.0 0.0
20:59 17.5 14.4 82 1015.1 3.8 SW 3.8 0.0 0.0
21:00 17.5 14.4 82 1015.1 4.5 W 4.5 0.0 0.0
21:01 17.5 14.4 82 1015.1 3.1 SW 4.5 0.0 0.0
21:02 17.5 14.4 82 1015.0 5.4 S 5.4 0.0 0.0
21:03 17.5 14.4 82 1015.0 2.2 SW 5.4 0.0 0.0
21:04 17.5 14.4 82 1014.8 3.8 SW 5.4 0.0 0.0
21:05 17.5 14.4 82 1015.0 3.1 S 5.4 0.0 0.0
21:06 17.5 14.6 83 1014.9 3.8 SW 5.4 0.0 0.0
21:07 17.5 14.6 83 1014.9 3.8 SSW 5.4 0.0 0.0
21:08 17.5 14.6 83 1014.9 3.8 S 5.4 0.0 0.0
21:09 17.5 14.6 83 1014.9 3.1 SW 5.4 0.0 0.0
21:10 17.5 14.6 83 1014.8 3.1 SW 5.4 0.0 0.0
21:11 17.5 14.6 83 1014.8 3.1 SW 5.4 0.0 0.0
21:12 17.4 14.5 83 1014.8 3.1 S 5.4 0.0 0.0
21:13 17.4 14.5 83 1014.9 3.1 S 3.8 0.0 0.0
21:14 17.4 14.5 83 1014.8 3.1 SW 3.8 0.0 0.0
21:15 17.4 14.5 83 1014.8 3.1 SW 3.8 0.0 0.0
21:16 17.4 14.5 83 1014.7 3.1 SW 3.8 0.0 0.0
21:17 17.4 14.5 83 1014.7 3.1 SW 3.8 0.0 0.0
21:18 17.4 14.5 83 1014.8 3.8 SW 3.8 0.0 0.0
21:19 17.4 14.7 84 1014.7 3.8 S 3.8 0.0 0.0
21:20 17.4 14.7 84 1014.6 3.1 SE 3.8 0.0 0.0
21:21 17.4 14.7 84 1014.7 3.8 S 3.8 0.0 0.0
21:22 17.4 14.7 84 1014.8 3.1 S 3.8 0.0 0.0
21:23 17.4 14.7 84 1014.6 3.8 S 3.8 0.0 0.0
21:24 17.4 14.7 84 1014.7 2.2 SW 3.8 0.0 0.0
21:25 17.4 14.7 84 1014.6 3.1 S 3.8 0.0 0.0
21:26 17.4 14.7 84 1014.9 3.8 SW 3.8 0.0 0.0
21:27 17.4 14.7 84 1014.8 3.1 SW 3.8 0.0 0.0
21:28 17.3 14.6 84 1014.7 3.8 SW 3.8 0.0 0.0
21:29 17.3 14.6 84 1014.7 3.8 SW 3.8 0.0 0.0
21:30 17.4 14.7 84 1014.9 4.5 SW 4.5 0.0 0.0
21:31 17.3 14.6 84 1014.8 3.8 SW 4.5 0.0 0.0
21:32 17.3 14.6 84 1014.8 3.8 SW 4.5 0.0 0.0
21:33 17.4 14.7 84 1014.7 3.8 SW 4.5 0.0 0.0
21:34 17.3 14.6 84 1014.8 3.8 S 4.5 0.0 0.0
21:36 17.3 14.6 84 1014.8 4.5 SW 4.5 0.0 0.0
21:37 17.3 14.8 85 1014.8 3.8 W 4.5 0.0 0.0
21:38 17.3 14.8 85 1014.8 2.2 S 4.5 0.0 0.0
21:39 17.3 14.8 85 1014.8 2.2 SW 4.5 0.0 0.0
21:40 17.3 14.8 85 1014.7 3.1 SW 4.5 0.0 0.0
21:41 17.4 14.9 85 1014.8 3.8 SSW 4.5 0.0 0.0
21:42 17.3 14.8 85 1014.7 3.8 S 4.5 0.0 0.0
21:43 17.3 14.8 85 1014.7 3.8 S 4.5 0.0 0.0
21:44 17.3 14.8 85 1014.8 2.2 SW 4.5 0.0 0.0
21:45 17.3 14.8 85 1014.8 3.1 SW 4.5 0.0 0.0
21:46 17.3 14.8 85 1014.8 3.8 SW 4.5 0.0 0.0
21:47 17.3 14.8 85 1014.9 3.1 S 3.8 0.0 0.0
21:48 17.3 14.8 85 1015.0 3.1 SE 3.8 0.0 0.0
21:49 17.3 14.8 85 1014.8 3.1 S 3.8 0.0 0.0
21:50 17.3 14.8 85 1014.8 3.1 SW 3.8 0.0 0.0
21:51 17.3 14.8 85 1014.9 3.1 S 3.8 0.0 0.0
21:52 17.3 14.8 85 1014.7 3.1 SW 3.8 0.0 0.0
21:53 17.3 14.8 85 1014.8 3.1 S 3.8 0.0 0.0
21:54 17.3 14.8 85 1014.8 3.8 SW 3.8 0.0 0.0
21:55 17.3 14.8 85 1014.8 3.8 S 3.8 0.0 0.0
21:56 17.3 14.8 85 1014.8 3.8 SW 3.8 0.0 0.0
21:57 17.3 14.8 85 1014.8 3.8 S 3.8 0.0 0.0
21:58 17.3 14.8 85 1014.8 3.8 S 3.8 0.0 0.0
21:59 17.3 14.8 85 1014.8 3.8 SE 3.8 0.0 0.0
22:00 17.3 14.8 85 1014.8 3.8 SW 3.8 0.0 0.0
22:01 17.3 14.8 85 1014.7 3.1 SW 3.8 0.0 0.0
22:02 17.3 14.8 85 1014.7 3.1 SW 3.8 0.0 0.0
22:03 17.3 14.8 85 1014.8 3.8 SW 3.8 0.0 0.0
22:04 17.2 14.7 85 1014.8 3.8 S 3.8 0.0 0.0
22:05 17.2 14.7 85 1014.8 4.5 SW 4.5 0.0 0.0
22:06 17.2 14.7 85 1014.8 3.8 S 4.5 0.0 0.0
22:07 17.2 14.7 85 1014.7 3.1 SE 4.5 0.0 0.0
22:08 17.2 14.7 85 1014.6 3.1 S 4.5 0.0 0.0
22:09 17.2 14.8 86 1014.6 4.5 S 4.5 0.0 0.0
22:10 17.2 14.8 86 1014.7 3.8 S 4.5 0.0 0.0
22:11 17.2 14.8 86 1014.6 2.2 SW 4.5 0.0 0.0
22:12 17.2 14.8 86 1014.6 4.5 S 4.5 0.0 0.0
22:13 17.2 14.8 86 1014.6 3.8 S 4.5 0.0 0.0
22:14 17.2 14.8 86 1014.5 5.4 S 5.4 0.0 0.0
22:15 17.1 14.7 86 1014.6 3.8 S 5.4 0.0 0.0
22:16 17.1 14.7 86 1014.6 3.8 S 5.4 0.0 0.0
22:17 17.1 14.7 86 1014.6 3.8 S 5.4 0.0 0.0
22:18 17.1 14.7 86 1014.6 3.8 SW 5.4 0.0 0.0
22:19 17.1 14.7 86 1014.7 3.8 SW 5.4 0.0 0.0
22:20 17.1 14.7 86 1014.5 3.1 S 5.4 0.0 0.0
22:21 17.1 14.7 86 1014.5 4.5 SW 5.4 0.0 0.0
22:22 17.1 14.7 86 1014.6 2.2 SW 5.4 0.0 0.0
22:23 17.0 14.7 86 1014.8 3.1 SW 5.4 0.0 0.0
22:24 17.0 14.7 86 1014.7 3.1 SE 4.5 0.0 0.0
22:25 17.0 14.7 86 1014.6 3.1 S 4.5 0.0 0.0
22:26 17.0 14.7 86 1014.7 2.2 SW 4.5 0.0 0.0
22:27 17.0 14.7 86 1014.8 3.1 SW 4.5 0.0 0.0
22:28 17.0 14.7 86 1014.6 2.2 WSW 4.5 0.0 0.0
22:29 17.0 14.7 86 1014.6 3.1 SE 4.5 0.0 0.0
22:30 17.0 14.7 86 1014.6 3.1 SW 4.5 0.0 0.0
22:31 17.0 14.8 87 1014.7 3.1 S 4.5 0.0 0.0
22:32 17.0 14.8 87 1014.7 3.1 S 4.5 0.0 0.0
22:33 17.0 14.8 87 1014.7 3.8 W 3.8 0.0 0.0
22:34 17.0 14.8 87 1014.6 3.1 SSE 3.8 0.0 0.0
22:35 16.9 14.7 87 1014.6 3.1 S 3.8 0.0 0.0
22:36 17.0 14.8 87 1014.6 2.2 S 3.8 0.0 0.0
22:37 17.0 14.8 87 1014.6 2.2 SE 3.8 0.0 0.0
22:38 16.9 14.7 87 1014.7 3.8 S 3.8 0.0 0.0
22:39 17.0 14.8 87 1014.7 3.1 S 3.8 0.0 0.0
22:40 17.0 14.8 87 1014.7 3.8 SW 3.8 0.0 0.0
22:42 16.9 14.7 87 1014.8 2.2 S 3.8 0.0 0.0
22:43 16.9 14.7 87 1014.7 3.1 SW 3.8 0.0 0.0
22:44 16.9 14.7 87 1014.6 2.2 SW 3.8 0.0 0.0
22:45 17.0 14.8 87 1014.7 2.2 S 3.8 0.0 0.0
22:46 17.0 14.8 87 1014.6 3.1 SE 3.8 0.0 0.0
22:47 16.9 14.7 87 1014.8 3.1 SW 3.8 0.0 0.0
22:48 16.9 14.7 87 1014.6 2.2 SW 3.8 0.0 0.0
22:49 17.0 15.0 88 1014.6 3.1 SW 3.8 0.0 0.0
22:50 16.9 14.9 88 1014.6 3.8 SW 3.8 0.0 0.0
22:51 16.9 14.9 88 1014.6 3.8 SW 3.8 0.0 0.0
22:52 16.9 14.9 88 1014.7 3.8 SW 3.8 0.0 0.0
22:53 16.9 14.9 88 1014.5 3.1 SW 3.8 0.0 0.0
22:54 17.0 15.0 88 1014.6 3.8 SW 3.8 0.0 0.0
22:55 16.9 14.9 88 1014.5 3.8 S 3.8 0.0 0.0
22:56 17.0 15.0 88 1014.6 3.1 SW 3.8 0.0 0.0
22:57 16.9 14.9 88 1014.5 3.1 S 3.8 0.0 0.0
22:58 17.0 15.0 88 1014.5 2.2 SW 3.8 0.0 0.0
22:59 16.9 14.9 88 1014.5 3.1 S 3.8 0.0 0.0
23:01 16.9 14.9 88 1014.5 3.1 S 3.8 0.0 0.0
23:02 16.9 14.9 88 1014.5 3.1 S 3.8 0.0 0.0
23:03 16.9 14.9 88 1014.4 3.1 S 3.8 0.0 0.0
23:04 16.9 14.9 88 1014.6 3.1 S 3.8 0.0 0.0
23:05 16.9 14.9 88 1014.6 3.1 S 3.1 0.0 0.0
23:06 17.0 15.0 88 1014.5 1.6 SW 3.1 0.0 0.0
23:07 17.0 15.0 88 1014.5 2.2 SW 3.1 0.0 0.0
23:08 17.0 15.0 88 1014.5 3.1 SW 3.1 0.0 0.0
23:09 17.0 15.0 88 1014.4 4.5 SW 4.5 0.0 0.0
23:10 17.0 15.0 88 1014.3 2.2 SW 4.5 0.0 0.0
23:11 17.0 15.2 89 1014.4 3.1 S 4.5 0.0 0.0
23:12 17.0 15.2 89 1014.4 3.1 S 4.5 0.0 0.0
23:13 17.0 15.2 89 1014.5 2.2 S 4.5 0.0 0.0
23:14 17.0 15.2 89 1014.5 3.8 S 4.5 0.0 0.0
23:15 17.0 15.2 89 1014.5 3.8 S 4.5 0.0 0.0
23:16 17.0 15.2 89 1014.6 3.1 SW 4.5 0.0 0.0
23:17 17.0 15.2 89 1014.5 2.2 SW 4.5 0.0 0.0
23:18 17.0 15.2 89 1014.4 3.1 SW 4.5 0.0 0.0
23:19 17.0 15.2 89 1014.4 3.1 SW 4.5 0.0 0.0
23:20 17.0 15.2 89 1014.4 3.1 SW 3.8 0.0 0.0
23:21 17.0 15.2 89 1014.5 2.2 SW 3.8 0.0 0.0
23:22 17.0 15.2 89 1014.4 2.2 S 3.8 0.0 0.0
23:23 17.0 15.2 89 1014.4 2.2 SW 3.8 0.0 0.0
23:24 17.0 15.2 89 1014.5 2.2 S 3.8 0.0 0.0
23:25 17.0 15.2 89 1014.4 3.1 S 3.8 0.0 0.0
23:26 17.0 15.2 89 1014.4 2.2 W 3.8 0.0 0.0
23:27 17.1 15.3 89 1014.3 2.2 S 3.8 0.0 0.0
23:28 17.1 15.3 89 1014.3 2.2 S 3.8 0.0 0.0
23:29 17.0 15.2 89 1014.5 3.1 SW 3.8 0.0 0.0
23:31 17.1 15.3 89 1014.3 2.2 SW 3.8 0.0 0.0
23:32 17.1 15.3 89 1014.4 3.1 SW 3.8 0.0 0.0
23:33 17.1 15.3 89 1014.4 2.2 S 3.8 0.0 0.0
23:34 17.1 15.3 89 1014.4 3.1 S 3.8 0.0 0.0
23:35 17.1 15.3 89 1014.4 3.1 SE 3.8 0.0 0.0
23:36 17.1 15.5 90 1014.3 3.1 W 3.8 0.0 0.0
23:37 17.1 15.5 90 1014.5 3.1 S 3.8 0.0 0.0
23:38 17.1 15.5 90 1014.4 3.1 SW 3.8 0.0 0.0
23:39 17.1 15.5 90 1014.4 3.1 SSW 3.8 0.0 0.0
23:40 17.1 15.5 90 1014.4 2.2 SW 3.8 0.0 0.0
23:41 17.1 15.5 90 1014.6 2.2 SW 3.8 0.0 0.0
23:42 17.1 15.5 90 1014.4 3.1 SW 3.8 0.0 0.0
23:43 17.1 15.5 90 1014.4 3.8 W 3.8 0.0 0.0
23:44 17.1 15.5 90 1014.3 3.1 S 3.8 0.0 0.0
23:45 17.2 15.6 90 1014.4 3.8 SW 3.8 0.0 0.0
23:46 17.2 15.6 90 1014.4 2.2 W 3.8 0.0 0.0
23:47 17.1 15.5 90 1014.4 3.1 W 3.8 0.0 0.0
23:48 17.2 15.6 90 1014.4 2.2 SW 3.8 0.0 0.0
23:50 17.2 15.6 90 1014.4 2.2 SW 3.8 0.0 0.0
23:51 17.2 15.6 90 1014.3 3.1 SW 3.8 0.0 0.0
23:52 17.2 15.6 90 1014.4 3.1 N 3.8 0.0 0.0
23:53 17.2 15.6 90 1014.4 3.1 S 3.8 0.0 0.0
23:54 17.2 15.6 90 1014.3 2.2 SW 3.8 0.0 0.0
23:55 17.2 15.6 90 1014.3 2.2 SW 3.1 0.0 0.0
23:56 17.2 15.6 90 1014.3 2.2 SW 3.1 0.0 0.0
23:57 17.2 15.6 90 1014.3 2.2 S 3.1 0.0 0.0
23:58 17.2 15.6 90 1014.4 3.1 SW 3.1 0.0 0.0
23:59 17.2 15.6 90 1014.4 2.2 S 3.1 0.0 0.0

UK - WEATHER STATION TOPSITES - UK World Weather Websites

This is a private weather station, never base important decisions or events on data from this weather station. Although every effort has been made to make the data as accurate as possible it does not meet MetOffice standards. It is proved as a guide of local weather conditions. We accept no liability for any loss which may arise from use of the data.

Copyright © Carnkie Weather 2009 - 2018.